Wetterdaten: Samstag, 13.10.2018
Datum Zeit Temp. Aussen Temp. o. S. +5cm Feuchte Auss Luftdruck Regen Sonnenschein Regendauer Solar Windben Empfang
13.10.2018 00:00 18,6 C 17,2 C 16,1 C 80 % 1018,6 hPa 0,0 l/m 0 min 0 min 0 W/m 9,7 km/h (2 Bft) 97,87 %
13.10.2018 00:02 18,6 C 17,2 C 16,1 C 80 % 1018,6 hPa 0,0 l/m 0 min 0 min 0 W/m 12,9 km/h (3 Bft) 94,44 %
13.10.2018 00:04 18,5 C 17,2 C 16,1 C 80 % 1018,5 hPa 0,0 l/m 0 min 0 min 0 W/m 9,7 km/h (2 Bft) 95,74 %
13.10.2018 00:08 18,4 C 17,2 C 16,1 C 80 % 1018,6 hPa 0,0 l/m 0 min 0 min 0 W/m 9,7 km/h (2 Bft) 95,74 %
13.10.2018 00:10 18,4 C 17,2 C 16,1 C 80 % 1018,5 hPa 0,0 l/m 0 min 0 min 0 W/m 6,4 km/h (2 Bft) 95,74 %
13.10.2018 00:12 18,4 C 17,2 C 16,1 C 80 % 1018,5 hPa 0,0 l/m 0 min 0 min 0 W/m 12,9 km/h (3 Bft) 95,74 %
13.10.2018 00:14 18,3 C 17,2 C 16,1 C 80 % 1018,5 hPa 0,0 l/m 0 min 0 min 0 W/m 12,9 km/h (3 Bft) 97,83 %
13.10.2018 00:16 18,3 C 17,2 C 16,1 C 81 % 1018,5 hPa 0,0 l/m 0 min 0 min 0 W/m 9,7 km/h (2 Bft) 98,04 %
13.10.2018 00:18 18,3 C 17,2 C 16,1 C 81 % 1018,5 hPa 0,0 l/m 0 min 0 min 0 W/m 16,1 km/h (3 Bft) 97,87 %
13.10.2018 00:20 18,2 C 17,2 C 16,1 C 81 % 1018,5 hPa 0,0 l/m 0 min 0 min 0 W/m 9,7 km/h (2 Bft) 95,74 %
13.10.2018 00:22 18,2 C 17,2 C 16,1 C 81 % 1018,5 hPa 0,0 l/m 0 min 0 min 0 W/m 9,7 km/h (2 Bft) 93,48 %
13.10.2018 00:24 18,2 C 17,2 C 16,1 C 81 % 1018,5 hPa 0,0 l/m 0 min 0 min 0 W/m 9,7 km/h (2 Bft) 95,74 %
13.10.2018 00:26 18,2 C 17,2 C 16,1 C 81 % 1018,4 hPa 0,0 l/m 0 min 0 min 0 W/m 9,7 km/h (2 Bft) 93,62 %
13.10.2018 00:28 18,2 C 17,2 C 16,1 C 81 % 1018,4 hPa 0,0 l/m 0 min 0 min 0 W/m 12,9 km/h (3 Bft) 95,74 %
13.10.2018 00:30 18,1 C 17,2 C 16,1 C 82 % 1018,4 hPa 0,0 l/m 0 min 0 min 0 W/m 9,7 km/h (2 Bft) 95,74 %
13.10.2018 00:32 18,1 C 17,2 C 16,1 C 82 % 1018,4 hPa 0,0 l/m 0 min 0 min 0 W/m 9,7 km/h (2 Bft) 97,87 %
13.10.2018 00:34 18,1 C 17,2 C 16,1 C 82 % 1018,4 hPa 0,0 l/m 0 min 0 min 0 W/m 12,9 km/h (3 Bft) 97,83 %
13.10.2018 00:38 18,1 C 17,2 C 16,1 C 82 % 1018,4 hPa 0,0 l/m 0 min 0 min 0 W/m 9,7 km/h (2 Bft) 96,81 %
13.10.2018 00:40 18,1 C 17,2 C 16,1 C 82 % 1018,3 hPa 0,0 l/m 0 min 0 min 0 W/m 12,9 km/h (3 Bft) 95,74 %
13.10.2018 00:42 18,1 C 17,2 C 16,1 C 82 % 1018,3 hPa 0,0 l/m 0 min 0 min 0 W/m 9,7 km/h (2 Bft) 97,87 %
13.10.2018 00:44 18,1 C 17,2 C 16,1 C 82 % 1018,3 hPa 0,0 l/m 0 min 0 min 0 W/m 12,9 km/h (3 Bft) 97,87 %
13.10.2018 00:46 18,1 C 17,2 C 16,1 C 82 % 1018,3 hPa 0,0 l/m 0 min 0 min 0 W/m 16,1 km/h (3 Bft) 97,56 %
13.10.2018 00:48 18,1 C 17,2 C 16,1 C 82 % 1018,3 hPa 0,0 l/m 0 min 0 min 0 W/m 9,7 km/h (2 Bft) 95,65 %
13.10.2018 00:50 18,1 C 17,2 C 16,1 C 82 % 1018,3 hPa 0,0 l/m 0 min 0 min 0 W/m 12,9 km/h (3 Bft) 95,74 %
13.10.2018 00:52 18,1 C 17,2 C 16,1 C 82 % 1018,2 hPa 0,0 l/m 0 min 0 min 0 W/m 9,7 km/h (2 Bft) 96,23 %
13.10.2018 00:54 18,1 C 17,2 C 16,1 C 82 % 1018,2 hPa 0,0 l/m 0 min 0 min 0 W/m 9,7 km/h (2 Bft) 97,62 %
13.10.2018 00:56 18,0 C 17,2 C 16,1 C 82 % 1018,2 hPa 0,0 l/m 0 min 0 min 0 W/m 12,9 km/h (3 Bft) 97,87 %
13.10.2018 00:58 18,0 C 17,2 C 16,1 C 82 % 1018,2 hPa 0,0 l/m 0 min 0 min 0 W/m 16,1 km/h (3 Bft) 97,87 %
13.10.2018 01:00 18,1 C 17,2 C 16,1 C 82 % 1018,3 hPa 0,0 l/m 0 min 0 min 0 W/m 9,7 km/h (2 Bft) 97,83 %
13.10.2018 01:02 18,0 C 17,2 C 16,1 C 82 % 1018,3 hPa 0,0 l/m 0 min 0 min 0 W/m 9,7 km/h (2 Bft) 97,87 %
13.10.2018 01:04 18,0 C 17,2 C 16,1 C 82 % 1018,2 hPa 0,0 l/m 0 min 0 min 0 W/m 9,7 km/h (2 Bft) 97,87 %
13.10.2018 01:08 18,0 C 17,2 C 16,1 C 82 % 1018,2 hPa 0,0 l/m 0 min 0 min 0 W/m 9,7 km/h (2 Bft) 96,84 %
13.10.2018 01:10 18,0 C 17,2 C 16,1 C 82 % 1018,2 hPa 0,0 l/m 0 min 0 min 0 W/m 6,4 km/h (2 Bft) 100,00 %
13.10.2018 01:12 18,0 C 17,2 C 16,1 C 82 % 1018,1 hPa 0,0 l/m 0 min 0 min 0 W/m 9,7 km/h (2 Bft) 100,00 %
13.10.2018 01:14 18,0 C 17,2 C 16,1 C 82 % 1018,1 hPa 0,0 l/m 0 min 0 min 0 W/m 9,7 km/h (2 Bft) 100,00 %
13.10.2018 01:16 18,0 C 17,2 C 16,1 C 82 % 1018,2 hPa 0,0 l/m 0 min 0 min 0 W/m 12,9 km/h (3 Bft) 100,00 %
13.10.2018 01:18 18,0 C 17,2 C 16,1 C 82 % 1018,2 hPa 0,0 l/m 0 min 0 min 0 W/m 9,7 km/h (2 Bft) 100,00 %
13.10.2018 01:20 18,0 C 17,2 C 16,1 C 82 % 1018,1 hPa 0,0 l/m 0 min 0 min 0 W/m 6,4 km/h (2 Bft) 100,00 %
13.10.2018 01:22 18,0 C 17,2 C 16,1 C 82 % 1018,1 hPa 0,0 l/m 0 min 0 min 0 W/m 16,1 km/h (3 Bft) 97,62 %
13.10.2018 01:24 17,9 C 17,2 C 16,1 C 82 % 1018,1 hPa 0,0 l/m 0 min 0 min 0 W/m 9,7 km/h (2 Bft) 100,00 %
13.10.2018 01:26 17,9 C 17,2 C 16,1 C 82 % 1018,1 hPa 0,0 l/m 0 min 0 min 0 W/m 12,9 km/h (3 Bft) 100,00 %
13.10.2018 01:28 17,9 C 17,2 C 16,1 C 82 % 1018,1 hPa 0,0 l/m 0 min 0 min 0 W/m 9,7 km/h (2 Bft) 100,00 %
13.10.2018 01:30 17,9 C 17,2 C 16,1 C 82 % 1018,1 hPa 0,0 l/m 0 min 0 min 0 W/m 6,4 km/h (2 Bft) 100,00 %
13.10.2018 01:32 17,9 C 17,2 C 16,1 C 82 % 1018,2 hPa 0,0 l/m 0 min 0 min 0 W/m 9,7 km/h (2 Bft) 100,00 %
13.10.2018 01:34 17,9 C 17,2 C 16,1 C 82 % 1018,0 hPa 0,0 l/m 0 min 0 min 0 W/m 12,9 km/h (3 Bft) 100,00 %
13.10.2018 01:38 17,9 C 17,2 C 16,1 C 82 % 1018,0 hPa 0,0 l/m 0 min 0 min 0 W/m 12,9 km/h (3 Bft) 99,00 %
13.10.2018 01:40 17,9 C 17,2 C 16,1 C 82 % 1018,0 hPa 0,0 l/m 0 min 0 min 0 W/m 9,7 km/h (2 Bft) 97,50 %
13.10.2018 01:42 17,9 C 17,2 C 16,1 C 82 % 1018,1 hPa 0,0 l/m 0 min 0 min 0 W/m 9,7 km/h (2 Bft) 100,00 %
13.10.2018 01:44 17,9 C 17,2 C 16,1 C 82 % 1018,0 hPa 0,0 l/m 0 min 0 min 0 W/m 12,9 km/h (3 Bft) 97,87 %
13.10.2018 01:46 17,9 C 17,2 C 16,1 C 82 % 1018,0 hPa 0,0 l/m 0 min 0 min 0 W/m 9,7 km/h (2 Bft) 97,56 %
13.10.2018 01:48 17,9 C 17,2 C 16,1 C 82 % 1018,1 hPa 0,0 l/m 0 min 0 min 0 W/m 9,7 km/h (2 Bft) 100,00 %
13.10.2018 01:50 17,9 C 17,2 C 16,1 C 82 % 1017,9 hPa 0,0 l/m 0 min 0 min 0 W/m 9,7 km/h (2 Bft) 100,00 %
13.10.2018 01:52 17,9 C 17,2 C 16,1 C 82 % 1018,0 hPa 0,0 l/m 0 min 0 min 0 W/m 6,4 km/h (2 Bft) 100,00 %
13.10.2018 01:54 17,9 C 17,2 C 16,1 C 82 % 1018,0 hPa 0,0 l/m 0 min 0 min 0 W/m 9,7 km/h (2 Bft) 100,00 %
13.10.2018 01:56 17,9 C 17,2 C 16,1 C 82 % 1018,0 hPa 0,0 l/m 0 min 0 min 0 W/m 6,4 km/h (2 Bft) 97,87 %
13.10.2018 01:58 17,9 C 17,2 C 16,1 C 82 % 1018,1 hPa 0,0 l/m 0 min 0 min 0 W/m 9,7 km/h (2 Bft) 100,00 %
13.10.2018 02:00 17,9 C 17,2 C 16,1 C 82 % 1018,0 hPa 0,0 l/m 0 min 0 min 0 W/m 12,9 km/h (3 Bft) 100,00 %
13.10.2018 02:02 17,9 C 17,2 C 16,1 C 82 % 1018,0 hPa 0,0 l/m 0 min 0 min 0 W/m 9,7 km/h (2 Bft) 100,00 %
13.10.2018 02:04 17,9 C 17,2 C 16,1 C 82 % 1018,0 hPa 0,0 l/m 0 min 0 min 0 W/m 12,9 km/h (3 Bft) 97,87 %
13.10.2018 02:07 17,9 C 17,2 C 16,1 C 82 % 1018,0 hPa 0,0 l/m 0 min 0 min 0 W/m 16,1 km/h (3 Bft) 100,00 %
13.10.2018 02:08 17,9 C 17,2 C 16,1 C 82 % 1018,0 hPa 0,0 l/m 0 min 0 min 0 W/m 16,1 km/h (3 Bft) 100,00 %
13.10.2018 02:10 17,9 C 17,2 C 16,1 C 82 % 1018,2 hPa 0,0 l/m 0 min 0 min 0 W/m 12,9 km/h (3 Bft) 100,00 %
13.10.2018 02:12 17,9 C 17,2 C 16,1 C 82 % 1018,2 hPa 0,0 l/m 0 min 0 min 0 W/m 12,9 km/h (3 Bft) 100,00 %
13.10.2018 02:14 17,9 C 17,2 C 16,1 C 82 % 1018,2 hPa 0,0 l/m 0 min 0 min 0 W/m 12,9 km/h (3 Bft) 100,00 %
13.10.2018 02:16 17,9 C 17,2 C 16,1 C 82 % 1018,1 hPa 0,0 l/m 0 min 0 min 0 W/m 16,1 km/h (3 Bft) 100,00 %
13.10.2018 02:18 17,9 C 17,2 C 16,1 C 82 % 1018,1 hPa 0,0 l/m 0 min 0 min 0 W/m 19,3 km/h (3 Bft) 100,00 %
13.10.2018 02:20 17,9 C 17,2 C 16,1 C 82 % 1018,1 hPa 0,0 l/m 0 min 0 min 0 W/m 12,9 km/h (3 Bft) 100,00 %
13.10.2018 02:22 17,9 C 17,2 C 16,1 C 82 % 1018,1 hPa 0,0 l/m 0 min 0 min 0 W/m 9,7 km/h (2 Bft) 93,62 %
13.10.2018 02:24 17,9 C 17,2 C 16,1 C 82 % 1018,2 hPa 0,0 l/m 0 min 0 min 0 W/m 12,9 km/h (3 Bft) 100,00 %
13.10.2018 02:26 17,9 C 17,2 C 16,1 C 82 % 1018,2 hPa 0,0 l/m 0 min 0 min 0 W/m 12,9 km/h (3 Bft) 97,87 %
13.10.2018 02:28 17,9 C 17,2 C 16,1 C 82 % 1018,2 hPa 0,0 l/m 0 min 0 min 0 W/m 9,7 km/h (2 Bft) 97,87 %
13.10.2018 02:30 17,9 C 17,2 C 16,1 C 82 % 1018,2 hPa 0,0 l/m 0 min 0 min 0 W/m 6,4 km/h (2 Bft) 95,74 %
13.10.2018 02:32 17,9 C 17,2 C 16,1 C 82 % 1018,2 hPa 0,0 l/m 0 min 0 min 0 W/m 9,7 km/h (2 Bft) 95,92 %
13.10.2018 02:34 17,9 C 17,2 C 16,1 C 82 % 1018,1 hPa 0,0 l/m 0 min 0 min 0 W/m 9,7 km/h (2 Bft) 95,74 %
13.10.2018 02:36 17,9 C 17,2 C 16,1 C 82 % 1018,1 hPa 0,0 l/m 0 min 0 min 0 W/m 6,4 km/h (2 Bft) 95,74 %
13.10.2018 02:38 17,9 C 17,2 C 16,1 C 82 % 1018,1 hPa 0,0 l/m 0 min 0 min 0 W/m 12,9 km/h (3 Bft) 95,74 %
13.10.2018 02:40 17,9 C 17,2 C 16,1 C 82 % 1018,2 hPa 0,0 l/m 0 min 0 min 0 W/m 12,9 km/h (3 Bft) 95,74 %
13.10.2018 02:42 17,9 C 17,2 C 16,1 C 82 % 1018,3 hPa 0,0 l/m 0 min 0 min 0 W/m 12,9 km/h (3 Bft) 95,74 %
13.10.2018 02:44 17,9 C 17,2 C 16,1 C 82 % 1018,2 hPa 0,0 l/m 0 min 0 min 0 W/m 16,1 km/h (3 Bft) 95,74 %
13.10.2018 02:46 17,9 C 17,2 C 16,1 C 82 % 1018,2 hPa 0,0 l/m 0 min 0 min 0 W/m 12,9 km/h (3 Bft) 93,62 %
13.10.2018 02:48 17,9 C 17,2 C 16,1 C 82 % 1018,2 hPa 0,0 l/m 0 min 0 min 0 W/m 9,7 km/h (2 Bft) 95,74 %
13.10.2018 02:50 17,9 C 17,2 C 16,1 C 82 % 1018,2 hPa 0,0 l/m 0 min 0 min 0 W/m 12,9 km/h (3 Bft) 95,74 %
13.10.2018 02:52 17,9 C 17,2 C 16,1 C 82 % 1018,2 hPa 0,0 l/m 0 min 0 min 0 W/m 12,9 km/h (3 Bft) 95,74 %
13.10.2018 02:54 17,9 C 17,2 C 16,1 C 82 % 1018,2 hPa 0,0 l/m 0 min 0 min 0 W/m 12,9 km/h (3 Bft) 95,74 %
13.10.2018 02:56 17,9 C 17,2 C 16,1 C 82 % 1018,2 hPa 0,0 l/m 0 min 0 min 0 W/m 16,1 km/h (3 Bft) 95,65 %
13.10.2018 02:58 17,9 C 17,2 C 16,1 C 82 % 1018,3 hPa 0,0 l/m 0 min 0 min 0 W/m 6,4 km/h (2 Bft) 91,49 %
13.10.2018 03:00 17,9 C 17,2 C 16,1 C 82 % 1018,3 hPa 0,0 l/m 0 min 0 min 0 W/m 12,9 km/h (3 Bft) 93,62 %
13.10.2018 03:02 17,9 C 16,7 C 16,1 C 82 % 1018,3 hPa 0,0 l/m 0 min 0 min 0 W/m 9,7 km/h (2 Bft) 95,74 %
13.10.2018 03:04 17,9 C 16,7 C 16,1 C 82 % 1018,3 hPa 0,0 l/m 0 min 0 min 0 W/m 9,7 km/h (2 Bft) 93,62 %
13.10.2018 03:06 17,8 C 16,7 C 16,1 C 82 % 1018,3 hPa 0,0 l/m 0 min 0 min 0 W/m 12,9 km/h (3 Bft) 93,62 %
13.10.2018 03:08 17,9 C 16,7 C 16,1 C 82 % 1018,4 hPa 0,0 l/m 0 min 0 min 0 W/m 16,1 km/h (3 Bft) 93,48 %
13.10.2018 03:10 17,8 C 16,7 C 15,6 C 82 % 1018,4 hPa 0,0 l/m 0 min 0 min 0 W/m 9,7 km/h (2 Bft) 93,62 %
13.10.2018 03:12 17,8 C 16,7 C 15,6 C 82 % 1018,4 hPa 0,0 l/m 0 min 0 min 0 W/m 12,9 km/h (3 Bft) 93,62 %
13.10.2018 03:14 17,8 C 16,7 C 15,6 C 82 % 1018,3 hPa 0,0 l/m 0 min 0 min 0 W/m 9,7 km/h (2 Bft) 93,62 %
13.10.2018 03:16 17,8 C 16,7 C 15,6 C 82 % 1018,3 hPa 0,0 l/m 0 min 0 min 0 W/m 16,1 km/h (3 Bft) 93,62 %
13.10.2018 03:18 17,8 C 16,7 C 15,6 C 82 % 1018,3 hPa 0,0 l/m 0 min 0 min 0 W/m 9,7 km/h (2 Bft) 95,74 %
13.10.2018 03:20 17,8 C 16,7 C 15,6 C 82 % 1018,2 hPa 0,0 l/m 0 min 0 min 0 W/m 9,7 km/h (2 Bft) 93,48 %
13.10.2018 03:22 17,7 C 16,7 C 15,6 C 82 % 1018,3 hPa 0,0 l/m 0 min 0 min 0 W/m 9,7 km/h (2 Bft) 95,74 %
13.10.2018 03:24 17,7 C 16,7 C 15,6 C 82 % 1018,2 hPa 0,0 l/m 0 min 0 min 0 W/m 9,7 km/h (2 Bft) 95,74 %
13.10.2018 03:26 17,7 C 16,7 C 15,6 C 83 % 1018,2 hPa 0,0 l/m 0 min 0 min 0 W/m 9,7 km/h (2 Bft) 95,74 %
13.10.2018 03:28 17,7 C 16,7 C 15,6 C 83 % 1018,2 hPa 0,0 l/m 0 min 0 min 0 W/m 9,7 km/h (2 Bft) 97,87 %
13.10.2018 03:30 17,7 C 16,7 C 15,6 C 83 % 1018,2 hPa 0,0 l/m 0 min 0 min 0 W/m 9,7 km/h (2 Bft) 93,62 %
13.10.2018 03:32 17,6 C 16,1 C 15,6 C 83 % 1018,2 hPa 0,0 l/m 0 min 0 min 0 W/m 9,7 km/h (2 Bft) 95,74 %
13.10.2018 03:34 17,6 C 16,1 C 15,6 C 83 % 1018,2 hPa 0,0 l/m 0 min 0 min 0 W/m 9,7 km/h (2 Bft) 97,87 %
13.10.2018 03:36 17,6 C 16,1 C 15,6 C 83 % 1018,2 hPa 0,0 l/m 0 min 0 min 0 W/m 9,7 km/h (2 Bft) 97,87 %
13.10.2018 03:38 17,5 C 16,1 C 15,6 C 83 % 1018,2 hPa 0,0 l/m 0 min 0 min 0 W/m 12,9 km/h (3 Bft) 95,74 %
13.10.2018 03:40 17,5 C 16,1 C 15,6 C 83 % 1018,2 hPa 0,0 l/m 0 min 0 min 0 W/m 12,9 km/h (3 Bft) 97,87 %
13.10.2018 03:42 17,4 C 16,1 C 15,6 C 83 % 1018,2 hPa 0,0 l/m 0 min 0 min 0 W/m 9,7 km/h (2 Bft) 95,74 %
13.10.2018 03:44 17,4 C 16,1 C 15,6 C 83 % 1018,2 hPa 0,0 l/m 0 min 0 min 0 W/m 9,7 km/h (2 Bft) 97,83 %
13.10.2018 03:46 17,4 C 16,1 C 15,6 C 83 % 1018,2 hPa 0,0 l/m 0 min 0 min 0 W/m 12,9 km/h (3 Bft) 95,56 %
13.10.2018 03:48 17,4 C 16,1 C 15,6 C 84 % 1018,2 hPa 0,0 l/m 0 min 0 min 0 W/m 9,7 km/h (2 Bft) 97,87 %
13.10.2018 03:50 17,3 C 16,1 C 15,6 C 84 % 1018,3 hPa 0,0 l/m 0 min 0 min 0 W/m 16,1 km/h (3 Bft) 97,87 %
13.10.2018 03:52 17,3 C 16,1 C 15,6 C 84 % 1018,3 hPa 0,0 l/m 0 min 0 min 0 W/m 12,9 km/h (3 Bft) 97,87 %
13.10.2018 03:54 17,3 C 16,1 C 15,6 C 84 % 1018,3 hPa 0,0 l/m 0 min 0 min 0 W/m 16,1 km/h (3 Bft) 97,87 %
13.10.2018 03:56 17,3 C 16,1 C 15,6 C 84 % 1018,3 hPa 0,0 l/m 0 min 0 min 0 W/m 9,7 km/h (2 Bft) 97,83 %
13.10.2018 03:58 17,3 C 16,1 C 15,6 C 84 % 1018,3 hPa 0,0 l/m 0 min 0 min 0 W/m 9,7 km/h (2 Bft) 95,74 %
13.10.2018 04:00 17,2 C 16,1 C 15,6 C 84 % 1018,2 hPa 0,0 l/m 0 min 0 min 0 W/m 9,7 km/h (2 Bft) 97,87 %
13.10.2018 04:02 17,2 C 16,1 C 15,6 C 84 % 1018,2 hPa 0,0 l/m 0 min 0 min 0 W/m 6,4 km/h (2 Bft) 92,86 %
13.10.2018 04:04 17,2 C 16,1 C 15,6 C 84 % 1018,3 hPa 0,0 l/m 0 min 0 min 0 W/m 9,7 km/h (2 Bft) 97,87 %
13.10.2018 04:06 17,2 C 16,1 C 15,6 C 84 % 1018,3 hPa 0,0 l/m 0 min 0 min 0 W/m 9,7 km/h (2 Bft) 100,00 %
13.10.2018 04:08 17,2 C 16,1 C 15,6 C 84 % 1018,3 hPa 0,0 l/m 0 min 0 min 0 W/m 12,9 km/h (3 Bft) 100,00 %
13.10.2018 04:10 17,1 C 16,1 C 15,6 C 84 % 1018,2 hPa 0,0 l/m 0 min 0 min 0 W/m 12,9 km/h (3 Bft) 100,00 %
13.10.2018 04:12 17,1 C 16,1 C 15,6 C 84 % 1018,3 hPa 0,0 l/m 0 min 0 min 0 W/m 9,7 km/h (2 Bft) 100,00 %
13.10.2018 04:14 17,1 C 16,1 C 15,6 C 85 % 1018,3 hPa 0,0 l/m 0 min 0 min 0 W/m 12,9 km/h (3 Bft) 100,00 %
13.10.2018 04:16 17,1 C 16,1 C 15,6 C 85 % 1018,3 hPa 0,0 l/m 0 min 0 min 0 W/m 9,7 km/h (2 Bft) 100,00 %
13.10.2018 04:18 17,1 C 16,1 C 15,6 C 85 % 1018,3 hPa 0,0 l/m 0 min 0 min 0 W/m 9,7 km/h (2 Bft) 100,00 %
13.10.2018 04:20 17,1 C 16,1 C 15,6 C 85 % 1018,2 hPa 0,0 l/m 0 min 0 min 0 W/m 12,9 km/h (3 Bft) 100,00 %
13.10.2018 04:22 17,1 C 16,1 C 15,6 C 85 % 1018,3 hPa 0,0 l/m 0 min 0 min 0 W/m 12,9 km/h (3 Bft) 97,87 %
13.10.2018 04:24 17,1 C 16,1 C 15,6 C 85 % 1018,3 hPa 0,0 l/m 0 min 0 min 0 W/m 9,7 km/h (2 Bft) 100,00 %
13.10.2018 04:26 17,1 C 16,1 C 15,6 C 85 % 1018,3 hPa 0,0 l/m 0 min 0 min 0 W/m 12,9 km/h (3 Bft) 100,00 %
13.10.2018 04:28 17,1 C 16,1 C 15,6 C 85 % 1018,3 hPa 0,0 l/m 0 min 0 min 0 W/m 12,9 km/h (3 Bft) 100,00 %
13.10.2018 04:30 17,0 C 16,1 C 15,6 C 85 % 1018,3 hPa 0,0 l/m 0 min 0 min 0 W/m 6,4 km/h (2 Bft) 97,87 %
13.10.2018 04:32 17,0 C 16,1 C 15,6 C 85 % 1018,3 hPa 0,0 l/m 0 min 0 min 0 W/m 12,9 km/h (3 Bft) 100,00 %
13.10.2018 04:34 17,0 C 16,1 C 15,0 C 85 % 1018,3 hPa 0,0 l/m 0 min 0 min 0 W/m 12,9 km/h (3 Bft) 100,00 %
13.10.2018 04:36 17,0 C 16,1 C 15,6 C 85 % 1018,3 hPa 0,0 l/m 0 min 0 min 0 W/m 9,7 km/h (2 Bft) 100,00 %
13.10.2018 04:38 17,0 C 16,1 C 15,6 C 85 % 1018,3 hPa 0,0 l/m 0 min 0 min 0 W/m 3,2 km/h (1 Bft) 100,00 %
13.10.2018 04:40 17,0 C 16,1 C 15,6 C 85 % 1018,2 hPa 0,0 l/m 0 min 0 min 0 W/m 12,9 km/h (3 Bft) 100,00 %
13.10.2018 04:42 17,0 C 16,1 C 15,6 C 85 % 1018,3 hPa 0,0 l/m 0 min 0 min 0 W/m 9,7 km/h (2 Bft) 100,00 %
13.10.2018 04:44 17,0 C 16,1 C 15,6 C 85 % 1018,3 hPa 0,0 l/m 0 min 0 min 0 W/m 9,7 km/h (2 Bft) 100,00 %
13.10.2018 04:46 17,0 C 16,1 C 15,0 C 85 % 1018,3 hPa 0,0 l/m 0 min 0 min 0 W/m 9,7 km/h (2 Bft) 100,00 %
13.10.2018 04:48 17,0 C 16,1 C 15,0 C 85 % 1018,3 hPa 0,0 l/m 0 min 0 min 0 W/m 9,7 km/h (2 Bft) 100,00 %
13.10.2018 04:50 16,9 C 16,1 C 15,6 C 85 % 1018,3 hPa 0,0 l/m 0 min 0 min 0 W/m 6,4 km/h (2 Bft) 100,00 %
13.10.2018 04:52 16,9 C 16,1 C 15,6 C 85 % 1018,4 hPa 0,0 l/m 0 min 0 min 0 W/m 12,9 km/h (3 Bft) 100,00 %
13.10.2018 04:54 16,9 C 16,1 C 15,0 C 85 % 1018,4 hPa 0,0 l/m 0 min 0 min 0 W/m 9,7 km/h (2 Bft) 100,00 %
13.10.2018 04:56 16,9 C 16,1 C 15,0 C 85 % 1018,3 hPa 0,0 l/m 0 min 0 min 0 W/m 6,4 km/h (2 Bft) 100,00 %
13.10.2018 04:58 16,9 C 16,1 C 15,0 C 85 % 1018,3 hPa 0,0 l/m 0 min 0 min 0 W/m 12,9 km/h (3 Bft) 100,00 %
13.10.2018 05:00 16,9 C 16,1 C 15,0 C 85 % 1018,3 hPa 0,0 l/m 0 min 0 min 0 W/m 9,7 km/h (2 Bft) 100,00 %
13.10.2018 05:02 16,9 C 16,1 C 15,0 C 85 % 1018,3 hPa 0,0 l/m 0 min 0 min 0 W/m 9,7 km/h (2 Bft) 100,00 %
13.10.2018 05:04 16,9 C 16,1 C 15,0 C 85 % 1018,3 hPa 0,0 l/m 0 min 0 min 0 W/m 9,7 km/h (2 Bft) 97,83 %
13.10.2018 05:05 16,9 C 16,1 C 15,0 C 85 % 1018,3 hPa 0,0 l/m 0 min 0 min 0 W/m 9,7 km/h (2 Bft) 100,00 %
13.10.2018 05:10 16,9 C 16,1 C 15,0 C 85 % 1018,4 hPa 0,0 l/m 0 min 0 min 0 W/m 12,9 km/h (3 Bft) 100,00 %
13.10.2018 05:12 16,9 C 16,1 C 15,0 C 85 % 1018,4 hPa 0,0 l/m 0 min 0 min 0 W/m 6,4 km/h (2 Bft) 92,00 %
13.10.2018 05:14 16,9 C 16,1 C 15,0 C 85 % 1018,5 hPa 0,0 l/m 0 min 0 min 0 W/m 6,4 km/h (2 Bft) 97,83 %
13.10.2018 05:19 16,9 C 16,1 C 15,0 C 85 % 1018,5 hPa 0,0 l/m 0 min 0 min 0 W/m 9,7 km/h (2 Bft) 100,00 %
13.10.2018 05:20 16,9 C 16,1 C 15,0 C 85 % 1018,5 hPa 0,0 l/m 0 min 0 min 0 W/m 6,4 km/h (2 Bft) 95,83 %
13.10.2018 05:22 16,9 C 16,1 C 15,0 C 85 % 1018,5 hPa 0,0 l/m 0 min 0 min 0 W/m 9,7 km/h (2 Bft) 100,00 %
13.10.2018 05:24 16,9 C 16,1 C 15,0 C 85 % 1018,6 hPa 0,0 l/m 0 min 0 min 0 W/m 6,4 km/h (2 Bft) 95,74 %
13.10.2018 05:26 16,8 C 16,1 C 15,0 C 85 % 1018,5 hPa 0,0 l/m 0 min 0 min 0 W/m 9,7 km/h (2 Bft) 97,83 %
13.10.2018 05:28 16,8 C 16,1 C 15,0 C 85 % 1018,6 hPa 0,0 l/m 0 min 0 min 0 W/m 6,4 km/h (2 Bft) 97,87 %
13.10.2018 05:30 16,8 C 16,1 C 15,0 C 85 % 1018,5 hPa 0,0 l/m 0 min 0 min 0 W/m 9,7 km/h (2 Bft) 97,87 %
13.10.2018 05:32 16,8 C 16,1 C 15,0 C 85 % 1018,4 hPa 0,0 l/m 0 min 0 min 0 W/m 9,7 km/h (2 Bft) 98,18 %
13.10.2018 05:34 16,8 C 16,1 C 15,0 C 85 % 1018,5 hPa 0,0 l/m 0 min 0 min 0 W/m 9,7 km/h (2 Bft) 97,87 %
13.10.2018 05:38 16,8 C 16,1 C 15,0 C 85 % 1018,4 hPa 0,0 l/m 0 min 0 min 0 W/m 12,9 km/h (3 Bft) 96,88 %
13.10.2018 05:40 16,8 C 16,1 C 15,0 C 85 % 1018,5 hPa 0,0 l/m 0 min 0 min 0 W/m 9,7 km/h (2 Bft) 97,87 %
13.10.2018 05:42 16,8 C 16,1 C 15,0 C 85 % 1018,5 hPa 0,0 l/m 0 min 0 min 0 W/m 12,9 km/h (3 Bft) 97,87 %
13.10.2018 05:44 16,8 C 16,1 C 15,0 C 85 % 1018,5 hPa 0,0 l/m 0 min 0 min 0 W/m 9,7 km/h (2 Bft) 97,87 %
13.10.2018 05:46 16,8 C 16,1 C 15,0 C 85 % 1018,5 hPa 0,0 l/m 0 min 0 min 0 W/m 9,7 km/h (2 Bft) 95,74 %
13.10.2018 05:48 16,8 C 16,1 C 15,0 C 85 % 1018,5 hPa 0,0 l/m 0 min 0 min 0 W/m 12,9 km/h (3 Bft) 97,83 %
13.10.2018 05:50 16,8 C 16,1 C 15,0 C 85 % 1018,5 hPa 0,0 l/m 0 min 0 min 0 W/m 12,9 km/h (3 Bft) 97,87 %
13.10.2018 05:52 16,7 C 16,1 C 15,0 C 85 % 1018,5 hPa 0,0 l/m 0 min 0 min 0 W/m 12,9 km/h (3 Bft) 95,83 %
13.10.2018 05:54 16,7 C 16,1 C 15,0 C 85 % 1018,5 hPa 0,0 l/m 0 min 0 min 0 W/m 12,9 km/h (3 Bft) 93,62 %
13.10.2018 05:56 16,7 C 16,1 C 15,0 C 85 % 1018,4 hPa 0,0 l/m 0 min 0 min 0 W/m 12,9 km/h (3 Bft) 95,74 %
13.10.2018 05:58 16,7 C 16,1 C 15,0 C 85 % 1018,4 hPa 0,0 l/m 0 min 0 min 0 W/m 9,7 km/h (2 Bft) 97,83 %
13.10.2018 06:00 16,7 C 16,1 C 15,0 C 85 % 1018,4 hPa 0,0 l/m 0 min 0 min 0 W/m 9,7 km/h (2 Bft) 100,00 %
13.10.2018 06:02 16,7 C 16,1 C 15,0 C 85 % 1018,4 hPa 0,0 l/m 0 min 0 min 0 W/m 12,9 km/h (3 Bft) 95,92 %
13.10.2018 06:04 16,7 C 16,1 C 15,0 C 85 % 1018,5 hPa 0,0 l/m 0 min 0 min 0 W/m 9,7 km/h (2 Bft) 95,74 %
13.10.2018 06:08 16,7 C 16,1 C 15,0 C 85 % 1018,5 hPa 0,0 l/m 0 min 0 min 0 W/m 9,7 km/h (2 Bft) 95,74 %
13.10.2018 06:10 16,7 C 16,1 C 15,0 C 85 % 1018,4 hPa 0,0 l/m 0 min 0 min 0 W/m 16,1 km/h (3 Bft) 93,48 %
13.10.2018 06:12 16,7 C 16,1 C 15,0 C 85 % 1018,5 hPa 0,0 l/m 0 min 0 min 0 W/m 12,9 km/h (3 Bft) 95,74 %
13.10.2018 06:14 16,7 C 16,1 C 15,0 C 85 % 1018,5 hPa 0,0 l/m 0 min 0 min 0 W/m 12,9 km/h (3 Bft) 95,74 %
13.10.2018 06:16 16,7 C 16,1 C 15,0 C 85 % 1018,4 hPa 0,0 l/m 0 min 0 min 0 W/m 12,9 km/h (3 Bft) 93,75 %
13.10.2018 06:18 16,7 C 16,1 C 15,0 C 85 % 1018,4 hPa 0,0 l/m 0 min 0 min 0 W/m 9,7 km/h (2 Bft) 95,74 %
13.10.2018 06:20 16,7 C 16,1 C 15,0 C 85 % 1018,4 hPa 0,0 l/m 0 min 0 min 0 W/m 12,9 km/h (3 Bft) 95,74 %
13.10.2018 06:22 16,7 C 16,1 C 15,0 C 85 % 1018,4 hPa 0,0 l/m 0 min 0 min 0 W/m 19,3 km/h (3 Bft) 93,48 %
13.10.2018 06:24 16,7 C 16,1 C 15,0 C 85 % 1018,4 hPa 0,0 l/m 0 min 0 min 0 W/m 19,3 km/h (3 Bft) 95,74 %
13.10.2018 06:26 16,7 C 16,1 C 15,0 C 85 % 1018,3 hPa 0,0 l/m 0 min 0 min 0 W/m 9,7 km/h (2 Bft) 95,74 %
13.10.2018 06:28 16,6 C 16,1 C 15,0 C 85 % 1018,3 hPa 0,0 l/m 0 min 0 min 0 W/m 12,9 km/h (3 Bft) 95,74 %
13.10.2018 06:30 16,6 C 15,6 C 15,0 C 85 % 1018,3 hPa 0,0 l/m 0 min 0 min 0 W/m 9,7 km/h (2 Bft) 95,74 %
13.10.2018 06:32 16,6 C 15,6 C 15,0 C 85 % 1018,2 hPa 0,0 l/m 0 min 0 min 0 W/m 9,7 km/h (2 Bft) 94,74 %
13.10.2018 06:34 16,6 C 16,1 C 15,0 C 85 % 1018,2 hPa 0,0 l/m 0 min 0 min 0 W/m 12,9 km/h (3 Bft) 95,74 %
13.10.2018 06:38 16,6 C 16,1 C 15,0 C 85 % 1018,2 hPa 0,0 l/m 0 min 0 min 0 W/m 12,9 km/h (3 Bft) 95,83 %
13.10.2018 06:40 16,6 C 16,1 C 15,0 C 85 % 1018,1 hPa 0,0 l/m 0 min 0 min 0 W/m 16,1 km/h (3 Bft) 93,62 %
13.10.2018 06:42 16,6 C 16,1 C 15,0 C 85 % 1018,1 hPa 0,0 l/m 0 min 0 min 0 W/m 12,9 km/h (3 Bft) 95,83 %
13.10.2018 06:44 16,6 C 16,1 C 15,0 C 85 % 1018,1 hPa 0,0 l/m 0 min 0 min 0 W/m 16,1 km/h (3 Bft) 95,74 %
13.10.2018 06:46 16,6 C 16,1 C 15,0 C 85 % 1018,1 hPa 0,0 l/m 0 min 0 min 0 W/m 9,7 km/h (2 Bft) 95,65 %
13.10.2018 06:48 16,6 C 16,1 C 15,0 C 85 % 1018,2 hPa 0,0 l/m 0 min 0 min 0 W/m 16,1 km/h (3 Bft) 95,74 %
13.10.2018 06:50 16,6 C 16,1 C 15,0 C 85 % 1018,2 hPa 0,0 l/m 0 min 0 min 0 W/m 12,9 km/h (3 Bft) 95,74 %
13.10.2018 06:52 16,6 C 16,1 C 15,0 C 85 % 1018,2 hPa 0,0 l/m 0 min 0 min 0 W/m 19,3 km/h (3 Bft) 95,83 %
13.10.2018 06:54 16,7 C 16,1 C 15,0 C 85 % 1018,2 hPa 0,0 l/m 0 min 0 min 0 W/m 16,1 km/h (3 Bft) 93,62 %
13.10.2018 06:56 16,6 C 16,1 C 15,0 C 85 % 1018,1 hPa 0,0 l/m 0 min 0 min 0 W/m 12,9 km/h (3 Bft) 95,74 %
13.10.2018 06:58 16,7 C 16,1 C 15,0 C 85 % 1018,0 hPa 0,0 l/m 0 min 0 min 0 W/m 12,9 km/h (3 Bft) 95,65 %
13.10.2018 07:00 16,7 C 16,1 C 15,0 C 85 % 1018,0 hPa 0,0 l/m 0 min 0 min 0 W/m 6,4 km/h (2 Bft) 100,00 %
13.10.2018 07:02 16,7 C 16,1 C 15,0 C 85 % 1018,0 hPa 0,0 l/m 0 min 0 min 0 W/m 9,7 km/h (2 Bft) 100,00 %
13.10.2018 07:04 16,7 C 16,1 C 15,0 C 85 % 1018,0 hPa 0,0 l/m 0 min 0 min 0 W/m 12,9 km/h (3 Bft) 100,00 %
13.10.2018 07:08 16,7 C 16,1 C 15,0 C 85 % 1018,0 hPa 0,0 l/m 0 min 0 min 0 W/m 12,9 km/h (3 Bft) 98,78 %
13.10.2018 07:10 16,7 C 16,1 C 15,0 C 85 % 1018,0 hPa 0,0 l/m 0 min 0 min 0 W/m 9,7 km/h (2 Bft) 100,00 %
13.10.2018 07:12 16,7 C 16,1 C 15,0 C 85 % 1018,0 hPa 0,0 l/m 0 min 0 min 0 W/m 9,7 km/h (2 Bft) 100,00 %
13.10.2018 07:14 16,7 C 16,1 C 15,0 C 85 % 1018,0 hPa 0,0 l/m 0 min 0 min 0 W/m 12,9 km/h (3 Bft) 100,00 %
13.10.2018 07:16 16,7 C 16,1 C 15,0 C 84 % 1018,0 hPa 0,0 l/m 0 min 0 min 0 W/m 6,4 km/h (2 Bft) 97,92 %
13.10.2018 07:18 16,7 C 15,6 C 15,0 C 84 % 1018,0 hPa 0,0 l/m 0 min 0 min 0 W/m 12,9 km/h (3 Bft) 100,00 %
13.10.2018 07:20 16,7 C 15,6 C 15,0 C 85 % 1018,0 hPa 0,0 l/m 0 min 0 min 0 W/m 9,7 km/h (2 Bft) 95,74 %
13.10.2018 07:22 16,7 C 15,6 C 15,0 C 85 % 1018,0 hPa 0,0 l/m 0 min 0 min 0 W/m 9,7 km/h (2 Bft) 100,00 %
13.10.2018 07:24 16,7 C 15,6 C 15,0 C 85 % 1017,9 hPa 0,0 l/m 0 min 0 min 0 W/m 9,7 km/h (2 Bft) 100,00 %
13.10.2018 07:26 16,6 C 15,6 C 15,0 C 85 % 1017,8 hPa 0,0 l/m 0 min 0 min 0 W/m 9,7 km/h (2 Bft) 100,00 %
13.10.2018 07:28 16,6 C 15,6 C 15,0 C 85 % 1017,9 hPa 0,0 l/m 0 min 0 min 0 W/m 9,7 km/h (2 Bft) 97,87 %
13.10.2018 07:30 16,6 C 15,6 C 15,0 C 85 % 1018,0 hPa 0,0 l/m 0 min 0 min 0 W/m 6,4 km/h (2 Bft) 100,00 %
13.10.2018 07:32 16,6 C 15,6 C 15,0 C 85 % 1017,9 hPa 0,0 l/m 0 min 0 min 0 W/m 9,7 km/h (2 Bft) 100,00 %
13.10.2018 07:34 16,6 C 15,6 C 15,0 C 85 % 1017,9 hPa 0,0 l/m 0 min 0 min 0 W/m 9,7 km/h (2 Bft) 100,00 %
13.10.2018 07:38 16,6 C 15,6 C 15,0 C 85 % 1017,8 hPa 0,0 l/m 0 min 0 min 0 W/m 9,7 km/h (2 Bft) 100,00 %
13.10.2018 07:40 16,5 C 15,6 C 15,0 C 85 % 1017,8 hPa 0,0 l/m 0 min 0 min 0 W/m 9,7 km/h (2 Bft) 100,00 %
13.10.2018 07:42 16,5 C 15,6 C 15,0 C 85 % 1017,9 hPa 0,0 l/m 0 min 0 min 3 W/m 9,7 km/h (2 Bft) 100,00 %
13.10.2018 07:44 16,5 C 15,6 C 15,0 C 85 % 1017,9 hPa 0,0 l/m 0 min 0 min 5 W/m 9,7 km/h (2 Bft) 100,00 %
13.10.2018 07:46 16,5 C 15,6 C 15,0 C 85 % 1017,8 hPa 0,0 l/m 0 min 0 min 5 W/m 9,7 km/h (2 Bft) 97,87 %
13.10.2018 07:48 16,4 C 15,6 C 15,0 C 85 % 1017,9 hPa 0,0 l/m 0 min 0 min 5 W/m 9,7 km/h (2 Bft) 100,00 %
13.10.2018 07:50 16,4 C 15,6 C 15,0 C 85 % 1017,9 hPa 0,0 l/m 0 min 0 min 5 W/m 9,7 km/h (2 Bft) 100,00 %
13.10.2018 07:52 16,4 C 15,6 C 14,4 C 85 % 1017,8 hPa 0,0 l/m 0 min 0 min 5 W/m 9,7 km/h (2 Bft) 100,00 %
13.10.2018 07:54 16,4 C 15,6 C 14,4 C 85 % 1017,9 hPa 0,0 l/m 0 min 0 min 5 W/m 12,9 km/h (3 Bft) 97,87 %
13.10.2018 07:56 16,3 C 15,6 C 14,4 C 85 % 1017,9 hPa 0,0 l/m 0 min 0 min 6 W/m 9,7 km/h (2 Bft) 97,83 %
13.10.2018 07:58 16,3 C 15,6 C 14,4 C 85 % 1017,9 hPa 0,0 l/m 0 min 0 min 7 W/m 9,7 km/h (2 Bft) 97,87 %
13.10.2018 08:00 16,3 C 15,6 C 14,4 C 85 % 1017,9 hPa 0,0 l/m 0 min 0 min 7 W/m 9,7 km/h (2 Bft) 97,87 %
13.10.2018 08:02 16,3 C 15,6 C 14,4 C 85 % 1018,0 hPa 0,0 l/m 0 min 0 min 9 W/m 9,7 km/h (2 Bft) 95,74 %
13.10.2018 08:04 16,3 C 15,6 C 14,4 C 85 % 1018,0 hPa 0,0 l/m 0 min 0 min 11 W/m 9,7 km/h (2 Bft) 97,87 %
13.10.2018 08:06 16,3 C 15,6 C 14,4 C 85 % 1017,9 hPa 0,0 l/m 0 min 0 min 11 W/m 12,9 km/h (3 Bft) 94,74 %
13.10.2018 08:08 16,3 C 15,6 C 14,4 C 85 % 1017,9 hPa 0,0 l/m 0 min 0 min 13 W/m 9,7 km/h (2 Bft) 97,87 %
13.10.2018 08:10 16,2 C 15,6 C 14,4 C 85 % 1017,8 hPa 0,0 l/m 0 min 0 min 14 W/m 9,7 km/h (2 Bft) 97,83 %
13.10.2018 08:12 16,2 C 15,6 C 14,4 C 85 % 1017,8 hPa 0,0 l/m 0 min 0 min 16 W/m 6,4 km/h (2 Bft) 97,87 %
13.10.2018 08:14 16,2 C 15,6 C 14,4 C 85 % 1017,8 hPa 0,0 l/m 0 min 0 min 17 W/m 12,9 km/h (3 Bft) 95,74 %
13.10.2018 08:16 16,2 C 15,6 C 14,4 C 85 % 1017,9 hPa 0,0 l/m 0 min 0 min 18 W/m 6,4 km/h (2 Bft) 95,74 %
13.10.2018 08:18 16,2 C 15,6 C 14,4 C 86 % 1017,9 hPa 0,0 l/m 0 min 0 min 19 W/m 9,7 km/h (2 Bft) 97,87 %
13.10.2018 08:20 16,2 C 15,6 C 14,4 C 86 % 1017,8 hPa 0,0 l/m 0 min 0 min 20 W/m 9,7 km/h (2 Bft) 97,87 %
13.10.2018 08:22 16,2 C 15,6 C 14,4 C 86 % 1017,8 hPa 0,0 l/m 0 min 0 min 21 W/m 9,7 km/h (2 Bft) 97,83 %
13.10.2018 08:24 16,2 C 15,6 C 14,4 C 86 % 1017,9 hPa 0,0 l/m 0 min 0 min 21 W/m 9,7 km/h (2 Bft) 97,87 %
13.10.2018 08:26 16,2 C 15,6 C 14,4 C 86 % 1017,8 hPa 0,0 l/m 0 min 0 min 22 W/m 6,4 km/h (2 Bft) 97,87 %
13.10.2018 08:28 16,1 C 15,6 C 14,4 C 86 % 1017,8 hPa 0,0 l/m 0 min 0 min 23 W/m 12,9 km/h (3 Bft) 97,87 %
13.10.2018 08:30 16,1 C 15,6 C 14,4 C 86 % 1017,8 hPa 0,0 l/m 0 min 0 min 23 W/m 9,7 km/h (2 Bft) 97,87 %
13.10.2018 08:32 16,1 C 15,6 C 14,4 C 86 % 1017,9 hPa 0,0 l/m 0 min 0 min 23 W/m 9,7 km/h (2 Bft) 95,92 %
13.10.2018 08:34 16,1 C 15,6 C 14,4 C 86 % 1018,0 hPa 0,0 l/m 0 min 0 min 23 W/m 9,7 km/h (2 Bft) 97,87 %
13.10.2018 08:36 16,1 C 15,6 C 14,4 C 86 % 1018,0 hPa 0,0 l/m 0 min 0 min 23 W/m 9,7 km/h (2 Bft) 97,87 %
13.10.2018 08:38 16,1 C 16,1 C 15,0 C 86 % 1017,9 hPa 0,0 l/m 0 min 0 min 24 W/m 16,1 km/h (3 Bft) 97,87 %
13.10.2018 08:40 16,1 C 16,1 C 15,0 C 86 % 1017,9 hPa 0,0 l/m 0 min 0 min 25 W/m 9,7 km/h (2 Bft) 97,87 %
13.10.2018 08:42 16,2 C 16,1 C 15,0 C 86 % 1017,9 hPa 0,0 l/m 0 min 0 min 25 W/m 12,9 km/h (3 Bft) 97,87 %
13.10.2018 08:44 16,2 C 16,1 C 15,0 C 86 % 1017,9 hPa 0,0 l/m 0 min 0 min 25 W/m 12,9 km/h (3 Bft) 97,83 %
13.10.2018 08:46 16,2 C 16,1 C 15,0 C 86 % 1017,9 hPa 0,0 l/m 0 min 0 min 25 W/m 9,7 km/h (2 Bft) 100,00 %
13.10.2018 08:48 16,2 C 16,1 C 15,0 C 86 % 1017,9 hPa 0,0 l/m 0 min 0 min 25 W/m 12,9 km/h (3 Bft) 97,87 %
13.10.2018 08:50 16,2 C 16,1 C 15,0 C 86 % 1018,0 hPa 0,0 l/m 0 min 0 min 26 W/m 9,7 km/h (2 Bft) 97,87 %
13.10.2018 08:52 16,2 C 16,1 C 15,0 C 86 % 1018,0 hPa 0,0 l/m 0 min 0 min 26 W/m 12,9 km/h (3 Bft) 91,49 %
13.10.2018 08:54 16,2 C 16,1 C 15,0 C 86 % 1017,9 hPa 0,0 l/m 0 min 0 min 28 W/m 12,9 km/h (3 Bft) 100,00 %
13.10.2018 08:56 16,2 C 16,1 C 15,0 C 86 % 1017,9 hPa 0,0 l/m 0 min 0 min 29 W/m 12,9 km/h (3 Bft) 100,00 %
13.10.2018 08:58 16,3 C 16,1 C 15,0 C 86 % 1017,9 hPa 0,0 l/m 0 min 0 min 30 W/m 19,3 km/h (3 Bft) 95,74 %
13.10.2018 09:00 16,3 C 16,1 C 15,0 C 86 % 1017,9 hPa 0,0 l/m 0 min 0 min 31 W/m 12,9 km/h (3 Bft) 100,00 %
13.10.2018 09:02 16,3 C 16,7 C 15,0 C 86 % 1017,9 hPa 0,0 l/m 0 min 0 min 32 W/m 16,1 km/h (3 Bft) 98,00 %
13.10.2018 09:04 16,4 C 16,7 C 15,0 C 86 % 1017,8 hPa 0,0 l/m 0 min 0 min 33 W/m 12,9 km/h (3 Bft) 97,87 %
13.10.2018 09:06 16,4 C 16,7 C 15,0 C 86 % 1017,8 hPa 0,0 l/m 0 min 0 min 33 W/m 16,1 km/h (3 Bft) 97,83 %
13.10.2018 09:08 16,4 C 16,7 C 15,0 C 85 % 1017,8 hPa 0,0 l/m 0 min 0 min 33 W/m 9,7 km/h (2 Bft) 97,87 %
13.10.2018 09:10 16,5 C 16,7 C 15,0 C 85 % 1017,8 hPa 0,0 l/m 0 min 0 min 35 W/m 16,1 km/h (3 Bft) 97,87 %
13.10.2018 09:12 16,5 C 16,7 C 15,0 C 85 % 1017,8 hPa 0,0 l/m 0 min 0 min 37 W/m 16,1 km/h (3 Bft) 97,87 %
13.10.2018 09:14 16,6 C 17,2 C 15,0 C 85 % 1017,8 hPa 0,0 l/m 0 min 0 min 38 W/m 16,1 km/h (3 Bft) 95,74 %
13.10.2018 09:16 16,6 C 17,2 C 15,6 C 85 % 1017,8 hPa 0,0 l/m 0 min 0 min 39 W/m 16,1 km/h (3 Bft) 97,87 %
13.10.2018 09:18 16,7 C 17,2 C 15,6 C 85 % 1017,8 hPa 0,0 l/m 0 min 0 min 39 W/m 12,9 km/h (3 Bft) 97,83 %
13.10.2018 09:20 16,7 C 17,2 C 15,6 C 85 % 1017,8 hPa 0,0 l/m 0 min 0 min 39 W/m 12,9 km/h (3 Bft) 97,87 %
13.10.2018 09:22 16,8 C 17,2 C 15,6 C 85 % 1017,8 hPa 0,0 l/m 0 min 0 min 39 W/m 9,7 km/h (2 Bft) 97,87 %
13.10.2018 09:24 16,8 C 17,2 C 15,6 C 84 % 1017,9 hPa 0,0 l/m 0 min 0 min 40 W/m 16,1 km/h (3 Bft) 97,87 %
13.10.2018 09:26 16,9 C 17,8 C 15,6 C 84 % 1017,9 hPa 0,0 l/m 0 min 0 min 40 W/m 16,1 km/h (3 Bft) 95,74 %
13.10.2018 09:28 16,9 C 17,8 C 15,6 C 84 % 1017,9 hPa 0,0 l/m 0 min 0 min 40 W/m 12,9 km/h (3 Bft) 97,87 %
13.10.2018 09:32 17,1 C 17,8 C 15,6 C 84 % 1017,8 hPa 0,0 l/m 0 min 0 min 40 W/m 9,7 km/h (2 Bft) 94,87 %
13.10.2018 09:34 17,1 C 17,8 C 16,1 C 83 % 1017,8 hPa 0,0 l/m 0 min 0 min 40 W/m 19,3 km/h (3 Bft) 95,65 %
13.10.2018 09:38 17,3 C 17,8 C 16,1 C 83 % 1017,8 hPa 0,0 l/m 0 min 0 min 40 W/m 19,3 km/h (3 Bft) 95,79 %
13.10.2018 09:40 17,4 C 17,8 C 16,1 C 83 % 1017,9 hPa 0,0 l/m 0 min 0 min 39 W/m 22,5 km/h (4 Bft) 95,74 %
13.10.2018 09:42 17,4 C 17,8 C 16,1 C 82 % 1017,8 hPa 0,0 l/m 0 min 0 min 50 W/m 12,9 km/h (3 Bft) 95,74 %
13.10.2018 09:44 17,5 C 18,3 C 16,1 C 82 % 1017,9 hPa 0,0 l/m 0 min 0 min 72 W/m 6,4 km/h (2 Bft) 93,48 %
13.10.2018 09:46 17,6 C 18,3 C 16,1 C 82 % 1017,9 hPa 0,0 l/m 0 min 0 min 84 W/m 16,1 km/h (3 Bft) 95,92 %
13.10.2018 09:48 17,6 C 18,3 C 16,1 C 82 % 1017,9 hPa 0,0 l/m 0 min 0 min 80 W/m 16,1 km/h (3 Bft) 95,74 %
13.10.2018 09:50 17,7 C 18,9 C 16,1 C 82 % 1017,9 hPa 0,0 l/m 0 min 0 min 65 W/m 12,9 km/h (3 Bft) 95,74 %
13.10.2018 09:52 17,7 C 19,4 C 16,1 C 81 % 1017,8 hPa 0,0 l/m 0 min 0 min 51 W/m 6,4 km/h (2 Bft) 97,87 %
13.10.2018 09:54 17,8 C 20,0 C 16,1 C 81 % 1017,9 hPa 0,0 l/m 0 min 0 min 44 W/m 16,1 km/h (3 Bft) 97,83 %
13.10.2018 09:56 17,9 C 21,1 C 16,1 C 81 % 1017,9 hPa 0,0 l/m 0 min 0 min 43 W/m 16,1 km/h (3 Bft) 95,74 %
13.10.2018 09:58 17,9 C 21,7 C 16,1 C 81 % 1017,9 hPa 0,0 l/m 0 min 0 min 42 W/m 9,7 km/h (2 Bft) 97,87 %
13.10.2018 10:00 18,0 C 21,7 C 16,1 C 81 % 1017,9 hPa 0,0 l/m 0 min 0 min 42 W/m 9,7 km/h (2 Bft) 97,87 %
13.10.2018 10:02 18,1 C 22,8 C 16,1 C 81 % 1017,9 hPa 0,0 l/m 0 min 0 min 48 W/m 12,9 km/h (3 Bft) 95,83 %
13.10.2018 10:04 18,2 C 23,3 C 16,1 C 81 % 1017,9 hPa 0,0 l/m 0 min 0 min 52 W/m 12,9 km/h (3 Bft) 97,87 %
13.10.2018 10:08 18,3 C 23,9 C 16,1 C 80 % 1017,9 hPa 0,0 l/m 0 min 0 min 57 W/m 12,9 km/h (3 Bft) 97,85 %
13.10.2018 10:10 18,5 C 23,9 C 16,7 C 80 % 1017,8 hPa 0,0 l/m 0 min 0 min 48 W/m 12,9 km/h (3 Bft) 97,87 %
13.10.2018 10:12 18,6 C 23,9 C 16,7 C 80 % 1017,8 hPa 0,0 l/m 0 min 0 min 46 W/m 16,1 km/h (3 Bft) 95,74 %
13.10.2018 10:14 18,7 C 25,0 C 16,7 C 79 % 1017,9 hPa 0,0 l/m 0 min 0 min 48 W/m 6,4 km/h (2 Bft) 95,74 %
13.10.2018 10:16 18,9 C 25,0 C 16,7 C 79 % 1017,8 hPa 0,0 l/m 0 min 0 min 47 W/m 9,7 km/h (2 Bft) 95,92 %
13.10.2018 10:18 19,0 C 25,0 C 16,7 C 79 % 1017,8 hPa 0,0 l/m 0 min 0 min 50 W/m 12,9 km/h (3 Bft) 97,92 %
13.10.2018 10:20 19,2 C 24,4 C 16,7 C 79 % 1017,9 hPa 0,0 l/m 0 min 0 min 42 W/m 12,9 km/h (3 Bft) 93,62 %
13.10.2018 10:22 19,3 C 24,4 C 16,7 C 78 % 1017,8 hPa 0,0 l/m 0 min 0 min 41 W/m 12,9 km/h (3 Bft) 100,00 %
13.10.2018 10:24 19,4 C 23,9 C 16,7 C 78 % 1017,8 hPa 0,0 l/m 0 min 0 min 41 W/m 12,9 km/h (3 Bft) 100,00 %
13.10.2018 10:26 19,5 C 23,9 C 16,7 C 77 % 1017,7 hPa 0,0 l/m 0 min 0 min 40 W/m 9,7 km/h (2 Bft) 97,87 %
13.10.2018 10:28 19,6 C 23,3 C 16,7 C 77 % 1017,8 hPa 0,0 l/m 0 min 0 min 44 W/m 12,9 km/h (3 Bft) 93,48 %
13.10.2018 10:30 19,7 C 23,3 C 16,7 C 77 % 1017,8 hPa 0,0 l/m 0 min 0 min 55 W/m 16,1 km/h (3 Bft) 95,74 %
13.10.2018 10:32 19,8 C 23,9 C 16,7 C 76 % 1017,7 hPa 0,0 l/m 0 min 0 min 79 W/m 16,1 km/h (3 Bft) 95,74 %
13.10.2018 10:34 19,9 C 23,9 C 16,7 C 75 % 1017,7 hPa 0,0 l/m 0 min 0 min 104 W/m 25,7 km/h (4 Bft) 97,87 %
13.10.2018 10:38 20,1 C 24,4 C 17,2 C 75 % 1017,7 hPa 0,0 l/m 0 min 0 min 145 W/m 16,1 km/h (3 Bft) 96,70 %
13.10.2018 10:40 20,2 C 24,4 C 17,2 C 74 % 1017,7 hPa 0,0 l/m 0 min 0 min 163 W/m 16,1 km/h (3 Bft) 97,87 %
13.10.2018 10:42 20,3 C 24,4 C 17,2 C 74 % 1017,7 hPa 0,0 l/m 0 min 0 min 163 W/m 16,1 km/h (3 Bft) 97,87 %
13.10.2018 10:44 20,4 C 25,0 C 17,2 C 74 % 1017,7 hPa 0,0 l/m 2 min 0 min 199 W/m 19,3 km/h (3 Bft) 97,87 %
13.10.2018 10:46 20,4 C 25,6 C 17,2 C 73 % 1017,6 hPa 0,0 l/m 0 min 0 min 177 W/m 19,3 km/h (3 Bft) 95,74 %
13.10.2018 10:48 20,6 C 26,1 C 17,2 C 73 % 1017,7 hPa 0,0 l/m 0 min 0 min 169 W/m 19,3 km/h (3 Bft) 95,74 %
13.10.2018 10:50 20,7 C 26,1 C 17,2 C 73 % 1017,7 hPa 0,0 l/m 0 min 0 min 78 W/m 16,1 km/h (3 Bft) 95,65 %
13.10.2018 10:52 20,8 C 26,7 C 17,2 C 72 % 1017,6 hPa 0,0 l/m 0 min 0 min 98 W/m 16,1 km/h (3 Bft) 97,87 %
13.10.2018 10:54 20,9 C 26,1 C 17,8 C 72 % 1017,7 hPa 0,0 l/m 0 min 0 min 95 W/m 25,7 km/h (4 Bft) 97,87 %
13.10.2018 10:56 21,0 C 26,7 C 17,2 C 72 % 1017,7 hPa 0,0 l/m 0 min 0 min 125 W/m 19,3 km/h (3 Bft) 97,87 %
13.10.2018 10:58 21,1 C 27,2 C 17,2 C 72 % 1017,6 hPa 0,0 l/m 0 min 0 min 183 W/m 9,7 km/h (2 Bft) 95,74 %
13.10.2018 11:00 21,2 C 27,2 C 17,2 C 72 % 1017,6 hPa 0,0 l/m 0 min 0 min 93 W/m 9,7 km/h (2 Bft) 97,87 %
13.10.2018 11:02 21,3 C 27,2 C 17,8 C 71 % 1017,6 hPa 0,0 l/m 0 min 0 min 53 W/m 12,9 km/h (3 Bft) 100,00 %
13.10.2018 11:04 21,4 C 27,2 C 17,8 C 71 % 1017,6 hPa 0,0 l/m 0 min 0 min 52 W/m 16,1 km/h (3 Bft) 100,00 %
13.10.2018 11:08 21,7 C 27,2 C 17,8 C 70 % 1017,5 hPa 0,0 l/m 0 min 0 min 96 W/m 22,5 km/h (4 Bft) 98,94 %
13.10.2018 11:10 21,7 C 27,8 C 17,8 C 70 % 1017,5 hPa 0,0 l/m 0 min 0 min 120 W/m 19,3 km/h (3 Bft) 100,00 %
13.10.2018 11:12 21,9 C 28,3 C 17,8 C 70 % 1017,5 hPa 0,0 l/m 0 min 0 min 66 W/m 12,9 km/h (3 Bft) 100,00 %
13.10.2018 11:14 21,9 C 28,3 C 17,8 C 70 % 1017,5 hPa 0,0 l/m 0 min 0 min 63 W/m 19,3 km/h (3 Bft) 100,00 %
13.10.2018 11:16 22,1 C 28,3 C 18,3 C 70 % 1017,5 hPa 0,0 l/m 0 min 0 min 82 W/m 12,9 km/h (3 Bft) 97,87 %
13.10.2018 11:18 22,2 C 28,3 C 18,3 C 69 % 1017,5 hPa 0,0 l/m 0 min 0 min 123 W/m 16,1 km/h (3 Bft) 97,87 %
13.10.2018 11:20 22,3 C 28,3 C 18,3 C 69 % 1017,5 hPa 0,0 l/m 0 min 0 min 91 W/m 12,9 km/h (3 Bft) 100,00 %
13.10.2018 11:22 22,4 C 27,8 C 18,3 C 68 % 1017,4 hPa 0,0 l/m 0 min 0 min 108 W/m 19,3 km/h (3 Bft) 100,00 %
13.10.2018 11:24 22,4 C 28,3 C 18,3 C 69 % 1017,4 hPa 0,0 l/m 0 min 0 min 77 W/m 12,9 km/h (3 Bft) 100,00 %
13.10.2018 11:26 22,6 C 28,3 C 18,3 C 68 % 1017,4 hPa 0,0 l/m 0 min 0 min 56 W/m 9,7 km/h (2 Bft) 100,00 %
13.10.2018 11:28 22,6 C 27,8 C 18,3 C 68 % 1017,4 hPa 0,0 l/m 0 min 0 min 54 W/m 16,1 km/h (3 Bft) 100,00 %
13.10.2018 11:30 22,7 C 27,8 C 18,3 C 67 % 1017,5 hPa 0,0 l/m 0 min 0 min 184 W/m 22,5 km/h (4 Bft) 100,00 %
13.10.2018 11:32 22,8 C 27,8 C 18,3 C 67 % 1017,4 hPa 0,0 l/m 2 min 0 min 276 W/m 16,1 km/h (3 Bft) 100,00 %
13.10.2018 11:34 22,8 C 27,8 C 18,3 C 67 % 1017,3 hPa 0,0 l/m 2 min 0 min 273 W/m 12,9 km/h (3 Bft) 100,00 %
13.10.2018 11:38 23,0 C 28,3 C 18,3 C 67 % 1017,4 hPa 0,0 l/m 0 min 0 min 85 W/m 19,3 km/h (3 Bft) 97,87 %
13.10.2018 11:40 23,1 C 27,8 C 18,3 C 67 % 1017,3 hPa 0,0 l/m 0 min 0 min 82 W/m 22,5 km/h (4 Bft) 100,00 %
13.10.2018 11:42 23,1 C 27,8 C 18,9 C 67 % 1017,3 hPa 0,0 l/m 0 min 0 min 55 W/m 9,7 km/h (2 Bft) 97,87 %
13.10.2018 11:44 23,2 C 28,3 C 18,9 C 67 % 1017,3 hPa 0,0 l/m 0 min 0 min 99 W/m 19,3 km/h (3 Bft) 100,00 %
13.10.2018 11:46 23,2 C 28,3 C 18,9 C 67 % 1017,2 hPa 0,0 l/m 0 min 0 min 101 W/m 16,1 km/h (3 Bft) 97,92 %
13.10.2018 11:48 23,3 C 28,3 C 18,9 C 67 % 1017,3 hPa 0,0 l/m 0 min 0 min 83 W/m 12,9 km/h (3 Bft) 100,00 %
13.10.2018 11:50 23,4 C 28,9 C 18,9 C 66 % 1017,2 hPa 0,0 l/m 0 min 0 min 56 W/m 22,5 km/h (4 Bft) 100,00 %
13.10.2018 11:52 23,4 C 28,9 C 18,9 C 66 % 1017,2 hPa 0,0 l/m 0 min 0 min 97 W/m 19,3 km/h (3 Bft) 100,00 %
13.10.2018 11:54 23,5 C 28,9 C 18,9 C 66 % 1017,2 hPa 0,0 l/m 0 min 0 min 83 W/m 12,9 km/h (3 Bft) 100,00 %
13.10.2018 11:56 23,6 C 28,9 C 18,9 C 66 % 1017,2 hPa 0,0 l/m 0 min 0 min 129 W/m 12,9 km/h (3 Bft) 100,00 %
13.10.2018 11:58 23,7 C 28,9 C 19,4 C 66 % 1017,2 hPa 0,0 l/m 0 min 0 min 111 W/m 25,7 km/h (4 Bft) 97,87 %
13.10.2018 12:00 23,7 C 28,9 C 19,4 C 65 % 1017,2 hPa 0,0 l/m 0 min 0 min 146 W/m 22,5 km/h (4 Bft) 97,87 %
13.10.2018 12:02 23,8 C 29,4 C 19,4 C 65 % 1017,2 hPa 0,0 l/m 0 min 0 min 192 W/m 16,1 km/h (3 Bft) 100,00 %
13.10.2018 12:04 23,9 C 29,4 C 19,4 C 65 % 1017,2 hPa 0,0 l/m 0 min 0 min 209 W/m 22,5 km/h (4 Bft) 100,00 %
13.10.2018 12:07 24,0 C 30,0 C 19,4 C 64 % 1017,1 hPa 0,0 l/m 0 min 0 min 162 W/m 16,1 km/h (3 Bft) 100,00 %
13.10.2018 12:08 24,0 C 30,0 C 19,4 C 65 % 1017,1 hPa 0,0 l/m 0 min 0 min 173 W/m 16,1 km/h (3 Bft) 100,00 %
13.10.2018 12:10 24,1 C 30,0 C 19,4 C 64 % 1017,1 hPa 0,0 l/m 0 min 0 min 65 W/m 22,5 km/h (4 Bft) 100,00 %
13.10.2018 12:12 24,1 C 30,0 C 19,4 C 64 % 1017,1 hPa 0,0 l/m 0 min 0 min 75 W/m 19,3 km/h (3 Bft) 100,00 %
13.10.2018 12:14 24,2 C 30,6 C 20,0 C 65 % 1017,1 hPa 0,0 l/m 0 min 0 min 71 W/m 9,7 km/h (2 Bft) 100,00 %
13.10.2018 12:16 24,3 C 31,1 C 20,0 C 64 % 1017,1 hPa 0,0 l/m 0 min 0 min 81 W/m 19,3 km/h (3 Bft) 100,00 %
13.10.2018 12:18 24,3 C 31,1 C 20,0 C 64 % 1017,2 hPa 0,0 l/m 0 min 0 min 158 W/m 25,7 km/h (4 Bft) 100,00 %
13.10.2018 12:20 24,4 C 30,0 C 20,0 C 63 % 1017,1 hPa 0,0 l/m 0 min 0 min 161 W/m 22,5 km/h (4 Bft) 97,87 %
13.10.2018 12:22 24,5 C 30,0 C 20,0 C 63 % 1017,1 hPa 0,0 l/m 0 min 0 min 69 W/m 22,5 km/h (4 Bft) 95,74 %
13.10.2018 12:24 24,5 C 30,0 C 20,0 C 63 % 1017,1 hPa 0,0 l/m 0 min 0 min 69 W/m 22,5 km/h (4 Bft) 93,62 %
13.10.2018 12:26 24,6 C 30,6 C 20,0 C 62 % 1017,0 hPa 0,0 l/m 0 min 0 min 69 W/m 16,1 km/h (3 Bft) 97,83 %
13.10.2018 12:28 24,7 C 30,6 C 20,0 C 62 % 1017,0 hPa 0,0 l/m 0 min 0 min 73 W/m 22,5 km/h (4 Bft) 97,87 %
13.10.2018 12:30 24,7 C 30,0 C 20,0 C 62 % 1017,0 hPa 0,0 l/m 0 min 0 min 70 W/m 22,5 km/h (4 Bft) 97,87 %
13.10.2018 12:32 24,7 C 30,0 C 20,0 C 62 % 1017,0 hPa 0,0 l/m 0 min 0 min 90 W/m 25,7 km/h (4 Bft) 92,00 %
13.10.2018 12:34 24,8 C 29,4 C 20,6 C 62 % 1017,0 hPa 0,0 l/m 0 min 0 min 79 W/m 19,3 km/h (3 Bft) 97,83 %
13.10.2018 12:38 24,8 C 26,1 C 20,6 C 61 % 1017,0 hPa 0,0 l/m 0 min 0 min 86 W/m 22,5 km/h (4 Bft) 97,87 %
13.10.2018 12:40 24,8 C 26,1 C 20,6 C 62 % 1017,0 hPa 0,0 l/m 0 min 0 min 101 W/m 19,3 km/h (3 Bft) 97,87 %
13.10.2018 12:42 24,8 C 26,1 C 20,6 C 62 % 1016,9 hPa 0,0 l/m 0 min 0 min 84 W/m 22,5 km/h (4 Bft) 91,49 %
13.10.2018 12:44 24,8 C 25,6 C 20,6 C 61 % 1016,9 hPa 0,0 l/m 0 min 0 min 69 W/m 25,7 km/h (4 Bft) 95,74 %
13.10.2018 12:46 24,8 C 25,0 C 20,6 C 61 % 1016,9 hPa 0,0 l/m 0 min 0 min 69 W/m 29,0 km/h (5 Bft) 92,68 %
13.10.2018 12:48 24,8 C 24,4 C 20,6 C 61 % 1016,9 hPa 0,0 l/m 0 min 0 min 70 W/m 22,5 km/h (4 Bft) 95,74 %
13.10.2018 12:50 24,8 C 24,4 C 20,6 C 61 % 1016,8 hPa 0,0 l/m 0 min 0 min 64 W/m 16,1 km/h (3 Bft) 95,65 %
13.10.2018 12:52 24,8 C 24,4 C 20,6 C 61 % 1016,8 hPa 0,0 l/m 0 min 0 min 65 W/m 25,7 km/h (4 Bft) 91,49 %
13.10.2018 12:54 24,8 C 24,4 C 20,6 C 62 % 1016,8 hPa 0,0 l/m 0 min 0 min 65 W/m 19,3 km/h (3 Bft) 93,62 %
13.10.2018 12:56 24,8 C 24,4 C 21,1 C 61 % 1016,8 hPa 0,0 l/m 0 min 0 min 234 W/m 25,7 km/h (4 Bft) 93,62 %
13.10.2018 12:58 24,7 C 24,4 C 21,1 C 61 % 1016,7 hPa 0,0 l/m 0 min 0 min 158 W/m 22,5 km/h (4 Bft) 93,62 %
13.10.2018 13:00 24,7 C 24,4 C 21,1 C 62 % 1016,8 hPa 0,0 l/m 0 min 0 min 82 W/m 22,5 km/h (4 Bft) 93,62 %
13.10.2018 13:02 24,7 C 24,4 C 20,6 C 61 % 1016,8 hPa 0,0 l/m 0 min 0 min 108 W/m 16,1 km/h (3 Bft) 94,00 %
13.10.2018 13:04 24,7 C 24,4 C 21,1 C 62 % 1016,7 hPa 0,0 l/m 2 min 0 min 462 W/m 12,9 km/h (3 Bft) 93,62 %
13.10.2018 13:08 24,7 C 24,4 C 21,1 C 61 % 1016,6 hPa 0,0 l/m 4 min 0 min 462 W/m 19,3 km/h (3 Bft) 93,90 %
13.10.2018 13:10 24,7 C 24,4 C 21,1 C 61 % 1016,6 hPa 0,0 l/m 2 min 0 min 462 W/m 19,3 km/h (3 Bft) 93,62 %
13.10.2018 13:12 24,7 C 24,4 C 21,1 C 61 % 1016,7 hPa 0,0 l/m 2 min 0 min 462 W/m 19,3 km/h (3 Bft) 93,62 %
13.10.2018 13:14 24,7 C 24,4 C 21,1 C 62 % 1016,6 hPa 0,0 l/m 2 min 0 min 464 W/m 19,3 km/h (3 Bft) 91,49 %
13.10.2018 13:16 24,7 C 24,4 C 21,1 C 61 % 1016,6 hPa 0,0 l/m 2 min 0 min 464 W/m 25,7 km/h (4 Bft) 93,62 %
13.10.2018 13:18 24,8 C 24,4 C 21,1 C 61 % 1016,5 hPa 0,0 l/m 2 min 0 min 466 W/m 16,1 km/h (3 Bft) 95,74 %
13.10.2018 13:20 24,8 C 24,4 C 21,1 C 62 % 1016,5 hPa 0,0 l/m 2 min 0 min 466 W/m 16,1 km/h (3 Bft) 94,92 %
13.10.2018 13:22 24,8 C 24,4 C 21,1 C 61 % 1016,5 hPa 0,0 l/m 2 min 0 min 466 W/m 19,3 km/h (3 Bft) 93,62 %
13.10.2018 13:24 24,8 C 24,4 C 21,7 C 61 % 1016,5 hPa 0,0 l/m 2 min 0 min 467 W/m 22,5 km/h (4 Bft) 94,29 %
13.10.2018 13:26 24,9 C 25,0 C 21,7 C 61 % 1016,4 hPa 0,0 l/m 2 min 0 min 467 W/m 16,1 km/h (3 Bft) 93,62 %
13.10.2018 13:28 24,9 C 25,0 C 21,7 C 62 % 1016,4 hPa 0,0 l/m 2 min 0 min 466 W/m 19,3 km/h (3 Bft) 95,65 %
13.10.2018 13:30 25,0 C 25,0 C 21,7 C 61 % 1016,4 hPa 0,0 l/m 2 min 0 min 466 W/m 22,5 km/h (4 Bft) 93,62 %
13.10.2018 13:32 25,0 C 25,0 C 21,7 C 61 % 1016,4 hPa 0,0 l/m 2 min 0 min 468 W/m 25,7 km/h (4 Bft) 95,74 %
13.10.2018 13:34 25,1 C 25,0 C 21,7 C 61 % 1016,3 hPa 0,0 l/m 2 min 0 min 468 W/m 25,7 km/h (4 Bft) 93,62 %
13.10.2018 13:38 25,1 C 25,0 C 21,7 C 61 % 1016,1 hPa 0,0 l/m 4 min 0 min 469 W/m 22,5 km/h (4 Bft) 97,92 %
13.10.2018 13:40 25,1 C 25,0 C 22,2 C 61 % 1016,1 hPa 0,0 l/m 2 min 0 min 469 W/m 22,5 km/h (4 Bft) 97,87 %
13.10.2018 13:42 25,2 C 25,0 C 22,2 C 61 % 1015,9 hPa 0,0 l/m 2 min 0 min 470 W/m 25,7 km/h (4 Bft) 100,00 %
13.10.2018 13:44 25,2 C 25,0 C 22,2 C 61 % 1015,9 hPa 0,0 l/m 2 min 0 min 469 W/m 29,0 km/h (5 Bft) 97,87 %
13.10.2018 13:46 25,3 C 25,0 C 22,2 C 60 % 1015,8 hPa 0,0 l/m 2 min 0 min 469 W/m 16,1 km/h (3 Bft) 97,96 %
13.10.2018 13:48 25,3 C 25,6 C 22,2 C 60 % 1015,8 hPa 0,0 l/m 2 min 0 min 471 W/m 16,1 km/h (3 Bft) 97,87 %
13.10.2018 13:50 25,3 C 25,6 C 22,2 C 60 % 1015,7 hPa 0,0 l/m 2 min 0 min 471 W/m 16,1 km/h (3 Bft) 98,31 %
13.10.2018 13:52 25,4 C 25,6 C 22,2 C 60 % 1015,7 hPa 0,0 l/m 2 min 0 min 470 W/m 16,1 km/h (3 Bft) 97,14 %
13.10.2018 13:54 25,4 C 25,6 C 22,2 C 60 % 1015,6 hPa 0,0 l/m 2 min 0 min 469 W/m 16,1 km/h (3 Bft) 100,00 %
13.10.2018 13:56 25,5 C 25,6 C 22,2 C 59 % 1015,6 hPa 0,0 l/m 2 min 0 min 469 W/m 19,3 km/h (3 Bft) 100,00 %
13.10.2018 13:58 25,6 C 25,6 C 22,2 C 60 % 1015,5 hPa 0,0 l/m 2 min 0 min 470 W/m 16,1 km/h (3 Bft) 100,00 %
13.10.2018 14:00 25,6 C 25,6 C 22,2 C 60 % 1015,5 hPa 0,0 l/m 2 min 0 min 469 W/m 22,5 km/h (4 Bft) 100,00 %
13.10.2018 14:02 25,6 C 26,1 C 22,2 C 60 % 1015,5 hPa 0,0 l/m 2 min 0 min 469 W/m 16,1 km/h (3 Bft) 100,00 %
13.10.2018 14:04 25,7 C 26,1 C 22,2 C 59 % 1015,4 hPa 0,0 l/m 2 min 0 min 470 W/m 19,3 km/h (3 Bft) 100,00 %
13.10.2018 14:08 25,8 C 25,6 C 22,2 C 59 % 1015,4 hPa 0,0 l/m 4 min 0 min 468 W/m 22,5 km/h (4 Bft) 100,00 %
13.10.2018 14:10 25,8 C 26,1 C 22,2 C 59 % 1015,3 hPa 0,0 l/m 2 min 0 min 466 W/m 22,5 km/h (4 Bft) 100,00 %
13.10.2018 14:12 25,8 C 25,6 C 22,2 C 58 % 1015,3 hPa 0,0 l/m 2 min 0 min 463 W/m 22,5 km/h (4 Bft) 100,00 %
13.10.2018 14:14 25,8 C 25,6 C 22,2 C 58 % 1015,2 hPa 0,0 l/m 2 min 0 min 408 W/m 22,5 km/h (4 Bft) 100,00 %
13.10.2018 14:16 25,9 C 26,1 C 22,8 C 58 % 1015,2 hPa 0,0 l/m 2 min 0 min 251 W/m 25,7 km/h (4 Bft) 100,00 %
13.10.2018 14:18 25,9 C 26,1 C 22,8 C 58 % 1015,2 hPa 0,0 l/m 2 min 0 min 311 W/m 16,1 km/h (3 Bft) 100,00 %
13.10.2018 14:20 25,9 C 26,1 C 22,8 C 58 % 1015,1 hPa 0,0 l/m 2 min 0 min 254 W/m 16,1 km/h (3 Bft) 100,00 %
13.10.2018 14:22 26,0 C 26,1 C 22,8 C 58 % 1015,1 hPa 0,0 l/m 0 min 0 min 107 W/m 16,1 km/h (3 Bft) 100,00 %
13.10.2018 14:24 26,1 C 26,1 C 22,2 C 58 % 1015,1 hPa 0,0 l/m 0 min 0 min 60 W/m 25,7 km/h (4 Bft) 100,00 %
13.10.2018 14:26 26,1 C 26,1 C 22,8 C 57 % 1015,1 hPa 0,0 l/m 0 min 0 min 77 W/m 25,7 km/h (4 Bft) 100,00 %
13.10.2018 14:28 26,1 C 26,1 C 22,8 C 57 % 1015,1 hPa 0,0 l/m 0 min 0 min 54 W/m 16,1 km/h (3 Bft) 100,00 %
13.10.2018 14:30 26,2 C 26,1 C 22,8 C 57 % 1015,0 hPa 0,0 l/m 0 min 0 min 53 W/m 19,3 km/h (3 Bft) 100,00 %
13.10.2018 14:32 26,2 C 26,1 C 22,8 C 57 % 1015,0 hPa 0,0 l/m 0 min 0 min 53 W/m 22,5 km/h (4 Bft) 100,00 %
13.10.2018 14:34 26,2 C 26,1 C 22,8 C 56 % 1014,9 hPa 0,0 l/m 0 min 0 min 53 W/m 12,9 km/h (3 Bft) 95,65 %
13.10.2018 14:38 26,3 C 26,1 C 22,8 C 56 % 1015,0 hPa 0,0 l/m 0 min 0 min 56 W/m 22,5 km/h (4 Bft) 100,00 %
13.10.2018 14:40 26,3 C 26,1 C 22,8 C 55 % 1015,0 hPa 0,0 l/m 0 min 0 min 61 W/m 19,3 km/h (3 Bft) 100,00 %
13.10.2018 14:42 26,4 C 26,1 C 22,8 C 56 % 1014,9 hPa 0,0 l/m 0 min 0 min 83 W/m 19,3 km/h (3 Bft) 100,00 %
13.10.2018 14:44 26,4 C 26,1 C 22,8 C 56 % 1014,9 hPa 0,0 l/m 0 min 0 min 156 W/m 25,7 km/h (4 Bft) 100,00 %
13.10.2018 14:46 26,4 C 26,7 C 22,8 C 56 % 1015,0 hPa 0,0 l/m 0 min 0 min 139 W/m 16,1 km/h (3 Bft) 100,00 %
13.10.2018 14:48 26,5 C 26,7 C 22,8 C 56 % 1014,9 hPa 0,0 l/m 0 min 0 min 144 W/m 19,3 km/h (3 Bft) 100,00 %
13.10.2018 14:50 26,5 C 26,1 C 22,8 C 55 % 1014,9 hPa 0,0 l/m 2 min 0 min 348 W/m 29,0 km/h (5 Bft) 100,00 %
13.10.2018 14:52 26,6 C 26,1 C 23,3 C 54 % 1014,8 hPa 0,0 l/m 2 min 0 min 429 W/m 22,5 km/h (4 Bft) 100,00 %
13.10.2018 14:54 26,6 C 26,1 C 23,3 C 55 % 1014,9 hPa 0,0 l/m 2 min 0 min 438 W/m 19,3 km/h (3 Bft) 100,00 %
13.10.2018 14:56 26,6 C 26,7 C 22,8 C 55 % 1014,8 hPa 0,0 l/m 2 min 0 min 433 W/m 16,1 km/h (3 Bft) 100,00 %
13.10.2018 14:58 26,7 C 26,1 C 22,8 C 55 % 1014,7 hPa 0,0 l/m 2 min 0 min 436 W/m 25,7 km/h (4 Bft) 100,00 %
13.10.2018 15:00 26,7 C 26,1 C 22,8 C 55 % 1014,8 hPa 0,0 l/m 2 min 0 min 436 W/m 19,3 km/h (3 Bft) 100,00 %
13.10.2018 15:02 26,7 C 26,1 C 22,8 C 55 % 1014,6 hPa 0,0 l/m 2 min 0 min 434 W/m 22,5 km/h (4 Bft) 97,87 %
13.10.2018 15:04 26,7 C 26,1 C 22,8 C 55 % 1014,6 hPa 0,0 l/m 2 min 0 min 430 W/m 29,0 km/h (5 Bft) 100,00 %
13.10.2018 15:08 26,7 C 26,1 C 22,8 C 54 % 1014,6 hPa 0,0 l/m 4 min 0 min 428 W/m 25,7 km/h (4 Bft) 100,00 %
13.10.2018 15:10 26,7 C 26,1 C 22,8 C 54 % 1014,6 hPa 0,0 l/m 2 min 0 min 426 W/m 16,1 km/h (3 Bft) 100,00 %
13.10.2018 15:12 26,7 C 26,7 C 22,8 C 55 % 1014,6 hPa 0,0 l/m 2 min 0 min 423 W/m 22,5 km/h (4 Bft) 100,00 %
13.10.2018 15:14 26,8 C 26,7 C 22,8 C 54 % 1014,6 hPa 0,0 l/m 2 min 0 min 421 W/m 25,7 km/h (4 Bft) 100,00 %
13.10.2018 15:16 26,8 C 26,7 C 22,8 C 54 % 1014,6 hPa 0,0 l/m 2 min 0 min 417 W/m 22,5 km/h (4 Bft) 100,00 %
13.10.2018 15:18 26,8 C 26,1 C 22,8 C 54 % 1014,6 hPa 0,0 l/m 2 min 0 min 416 W/m 29,0 km/h (5 Bft) 97,83 %
13.10.2018 15:20 26,8 C 26,7 C 22,8 C 54 % 1014,5 hPa 0,0 l/m 2 min 0 min 414 W/m 22,5 km/h (4 Bft) 100,00 %
13.10.2018 15:22 26,8 C 26,7 C 22,8 C 54 % 1014,5 hPa 0,0 l/m 2 min 0 min 411 W/m 25,7 km/h (4 Bft) 100,00 %
13.10.2018 15:24 26,8 C 26,7 C 22,8 C 54 % 1014,6 hPa 0,0 l/m 2 min 0 min 409 W/m 32,2 km/h (5 Bft) 97,87 %
13.10.2018 15:26 26,8 C 26,7 C 22,8 C 53 % 1014,6 hPa 0,0 l/m 2 min 0 min 404 W/m 25,7 km/h (4 Bft) 95,74 %
13.10.2018 15:28 26,9 C 26,7 C 22,8 C 53 % 1014,5 hPa 0,0 l/m 2 min 0 min 403 W/m 16,1 km/h (3 Bft) 97,87 %
13.10.2018 15:30 26,9 C 26,7 C 22,8 C 53 % 1014,5 hPa 0,0 l/m 2 min 0 min 402 W/m 22,5 km/h (4 Bft) 97,83 %
13.10.2018 15:32 26,9 C 26,7 C 22,8 C 53 % 1014,5 hPa 0,0 l/m 2 min 0 min 400 W/m 25,7 km/h (4 Bft) 97,87 %
13.10.2018 15:34 26,9 C 26,7 C 22,8 C 53 % 1014,5 hPa 0,0 l/m 2 min 0 min 397 W/m 22,5 km/h (4 Bft) 97,87 %
13.10.2018 15:38 26,9 C 26,7 C 22,8 C 53 % 1014,4 hPa 0,0 l/m 4 min 0 min 393 W/m 22,5 km/h (4 Bft) 95,74 %
13.10.2018 15:40 26,9 C 26,7 C 22,8 C 53 % 1014,3 hPa 0,0 l/m 2 min 0 min 388 W/m 22,5 km/h (4 Bft) 95,74 %
13.10.2018 15:42 26,9 C 26,7 C 22,8 C 53 % 1014,4 hPa 0,0 l/m 2 min 0 min 387 W/m 32,2 km/h (5 Bft) 95,65 %
13.10.2018 15:44 26,9 C 26,7 C 23,3 C 53 % 1014,3 hPa 0,0 l/m 2 min 0 min 384 W/m 19,3 km/h (3 Bft) 93,62 %
13.10.2018 15:46 26,9 C 26,7 C 22,8 C 53 % 1014,3 hPa 0,0 l/m 2 min 0 min 382 W/m 19,3 km/h (3 Bft) 93,18 %
13.10.2018 15:48 27,0 C 26,7 C 22,8 C 53 % 1014,2 hPa 0,0 l/m 2 min 0 min 378 W/m 16,1 km/h (3 Bft) 93,62 %
13.10.2018 15:50 27,0 C 26,7 C 22,8 C 53 % 1014,2 hPa 0,0 l/m 2 min 0 min 375 W/m 22,5 km/h (4 Bft) 95,74 %
13.10.2018 15:52 27,0 C 26,7 C 22,8 C 53 % 1014,2 hPa 0,0 l/m 2 min 0 min 372 W/m 16,1 km/h (3 Bft) 95,74 %
13.10.2018 15:54 27,0 C 26,7 C 22,8 C 53 % 1014,3 hPa 0,0 l/m 2 min 0 min 368 W/m 19,3 km/h (3 Bft) 95,74 %
13.10.2018 15:56 27,0 C 26,7 C 22,8 C 53 % 1014,2 hPa 0,0 l/m 2 min 0 min 366 W/m 22,5 km/h (4 Bft) 93,48 %
13.10.2018 15:58 27,0 C 26,7 C 22,8 C 53 % 1014,2 hPa 0,0 l/m 2 min 0 min 362 W/m 19,3 km/h (3 Bft) 95,74 %
13.10.2018 16:00 27,0 C 26,7 C 22,8 C 54 % 1014,2 hPa 0,0 l/m 2 min 0 min 358 W/m 19,3 km/h (3 Bft) 93,62 %
13.10.2018 16:02 27,0 C 26,7 C 22,8 C 53 % 1014,1 hPa 0,0 l/m 2 min 0 min 355 W/m 19,3 km/h (3 Bft) 93,75 %
13.10.2018 16:04 27,0 C 26,7 C 22,8 C 53 % 1014,1 hPa 0,0 l/m 2 min 0 min 353 W/m 19,3 km/h (3 Bft) 93,62 %
13.10.2018 16:08 27,0 C 26,7 C 22,8 C 53 % 1014,1 hPa 0,0 l/m 4 min 0 min 348 W/m 25,7 km/h (4 Bft) 96,77 %
13.10.2018 16:10 27,0 C 26,1 C 22,8 C 53 % 1014,1 hPa 0,0 l/m 2 min 0 min 342 W/m 25,7 km/h (4 Bft) 95,74 %
13.10.2018 16:12 27,0 C 26,1 C 22,8 C 53 % 1014,0 hPa 0,0 l/m 2 min 0 min 339 W/m 22,5 km/h (4 Bft) 95,74 %
13.10.2018 16:14 27,0 C 26,1 C 22,8 C 53 % 1014,1 hPa 0,0 l/m 2 min 0 min 336 W/m 25,7 km/h (4 Bft) 95,74 %
13.10.2018 16:16 26,9 C 26,1 C 22,8 C 54 % 1014,1 hPa 0,0 l/m 2 min 0 min 332 W/m 25,7 km/h (4 Bft) 96,00 %
13.10.2018 16:18 26,9 C 26,7 C 22,8 C 54 % 1014,1 hPa 0,0 l/m 2 min 0 min 329 W/m 12,9 km/h (3 Bft) 95,74 %
13.10.2018 16:20 26,9 C 26,7 C 22,8 C 54 % 1014,1 hPa 0,0 l/m 2 min 0 min 324 W/m 12,9 km/h (3 Bft) 93,62 %
13.10.2018 16:22 26,9 C 26,7 C 22,8 C 54 % 1014,1 hPa 0,0 l/m 2 min 0 min 321 W/m 9,7 km/h (2 Bft) 95,74 %
13.10.2018 16:24 26,9 C 27,2 C 22,8 C 54 % 1014,0 hPa 0,0 l/m 2 min 0 min 316 W/m 16,1 km/h (3 Bft) 95,74 %
13.10.2018 16:26 26,9 C 27,8 C 22,8 C 53 % 1014,0 hPa 0,0 l/m 2 min 0 min 313 W/m 19,3 km/h (3 Bft) 95,74 %
13.10.2018 16:28 26,9 C 27,8 C 22,8 C 53 % 1013,9 hPa 0,0 l/m 2 min 0 min 310 W/m 16,1 km/h (3 Bft) 93,48 %
13.10.2018 16:30 26,9 C 28,3 C 22,2 C 54 % 1014,0 hPa 0,0 l/m 2 min 0 min 306 W/m 12,9 km/h (3 Bft) 95,74 %
13.10.2018 16:32 26,9 C 28,3 C 22,8 C 53 % 1013,9 hPa 0,0 l/m 2 min 0 min 302 W/m 19,3 km/h (3 Bft) 95,12 %
13.10.2018 16:34 26,9 C 27,2 C 22,2 C 54 % 1013,9 hPa 0,0 l/m 2 min 0 min 298 W/m 16,1 km/h (3 Bft) 97,87 %
13.10.2018 16:38 26,9 C 26,7 C 22,8 C 53 % 1013,9 hPa 0,0 l/m 4 min 0 min 292 W/m 22,5 km/h (4 Bft) 96,63 %
13.10.2018 16:40 26,9 C 26,7 C 22,2 C 53 % 1013,8 hPa 0,0 l/m 2 min 0 min 286 W/m 22,5 km/h (4 Bft) 95,74 %
13.10.2018 16:42 26,9 C 27,2 C 22,2 C 53 % 1013,9 hPa 0,0 l/m 2 min 0 min 281 W/m 22,5 km/h (4 Bft) 97,83 %
13.10.2018 16:44 26,8 C 27,8 C 22,2 C 53 % 1013,8 hPa 0,0 l/m 2 min 0 min 275 W/m 22,5 km/h (4 Bft) 95,74 %
13.10.2018 16:46 26,8 C 28,3 C 22,2 C 53 % 1013,7 hPa 0,0 l/m 2 min 0 min 274 W/m 12,9 km/h (3 Bft) 97,73 %
13.10.2018 16:48 26,8 C 27,8 C 22,2 C 53 % 1013,7 hPa 0,0 l/m 2 min 0 min 268 W/m 22,5 km/h (4 Bft) 97,87 %
13.10.2018 16:50 26,8 C 27,2 C 22,8 C 54 % 1013,6 hPa 0,0 l/m 2 min 0 min 264 W/m 16,1 km/h (3 Bft) 96,61 %
13.10.2018 16:52 26,8 C 26,7 C 22,8 C 54 % 1013,6 hPa 0,0 l/m 2 min 0 min 260 W/m 16,1 km/h (3 Bft) 97,14 %
13.10.2018 16:54 26,7 C 26,1 C 22,8 C 54 % 1013,6 hPa 0,0 l/m 2 min 0 min 256 W/m 16,1 km/h (3 Bft) 97,87 %
13.10.2018 16:56 26,7 C 26,1 C 22,8 C 54 % 1013,5 hPa 0,0 l/m 2 min 0 min 252 W/m 9,7 km/h (2 Bft) 97,87 %
13.10.2018 16:58 26,7 C 26,1 C 22,2 C 54 % 1013,5 hPa 0,0 l/m 2 min 0 min 244 W/m 9,7 km/h (2 Bft) 97,83 %
13.10.2018 17:00 26,7 C 26,1 C 22,2 C 54 % 1013,5 hPa 0,0 l/m 2 min 0 min 235 W/m 12,9 km/h (3 Bft) 95,74 %
13.10.2018 17:02 26,6 C 26,1 C 22,8 C 54 % 1013,5 hPa 0,0 l/m 2 min 0 min 168 W/m 19,3 km/h (3 Bft) 94,12 %
13.10.2018 17:04 26,6 C 25,6 C 22,2 C 54 % 1013,4 hPa 0,0 l/m 2 min 0 min 173 W/m 9,7 km/h (2 Bft) 97,87 %
13.10.2018 17:08 26,5 C 25,6 C 22,8 C 54 % 1013,4 hPa 0,0 l/m 0 min 0 min 102 W/m 25,7 km/h (4 Bft) 95,70 %
13.10.2018 17:10 26,5 C 25,6 C 22,8 C 54 % 1013,4 hPa 0,0 l/m 0 min 0 min 40 W/m 16,1 km/h (3 Bft) 97,87 %
13.10.2018 17:12 26,4 C 25,6 C 22,2 C 54 % 1013,3 hPa 0,0 l/m 0 min 0 min 39 W/m 12,9 km/h (3 Bft) 95,74 %
13.10.2018 17:14 26,4 C 25,6 C 22,2 C 54 % 1013,3 hPa 0,0 l/m 0 min 0 min 35 W/m 9,7 km/h (2 Bft) 100,00 %
13.10.2018 17:16 26,4 C 25,6 C 22,2 C 54 % 1013,3 hPa 0,0 l/m 0 min 0 min 32 W/m 12,9 km/h (3 Bft) 97,87 %
13.10.2018 17:18 26,4 C 25,0 C 22,2 C 54 % 1013,4 hPa 0,0 l/m 0 min 0 min 30 W/m 16,1 km/h (3 Bft) 100,00 %
13.10.2018 17:20 26,3 C 25,0 C 22,2 C 54 % 1013,3 hPa 0,0 l/m 0 min 0 min 30 W/m 12,9 km/h (3 Bft) 100,00 %
13.10.2018 17:22 26,3 C 25,0 C 21,7 C 55 % 1013,3 hPa 0,0 l/m 0 min 0 min 29 W/m 9,7 km/h (2 Bft) 100,00 %
13.10.2018 17:24 26,3 C 25,0 C 21,7 C 55 % 1013,3 hPa 0,0 l/m 0 min 0 min 30 W/m 19,3 km/h (3 Bft) 100,00 %
13.10.2018 17:26 26,2 C 25,0 C 21,7 C 55 % 1013,3 hPa 0,0 l/m 0 min 0 min 30 W/m 16,1 km/h (3 Bft) 100,00 %
13.10.2018 17:28 26,1 C 25,0 C 21,7 C 55 % 1013,3 hPa 0,0 l/m 0 min 0 min 32 W/m 12,9 km/h (3 Bft) 100,00 %
13.10.2018 17:30 26,1 C 25,0 C 21,7 C 55 % 1013,2 hPa 0,0 l/m 0 min 0 min 31 W/m 12,9 km/h (3 Bft) 100,00 %
13.10.2018 17:32 26,1 C 25,0 C 21,7 C 56 % 1013,2 hPa 0,0 l/m 0 min 0 min 28 W/m 16,1 km/h (3 Bft) 97,87 %
13.10.2018 17:34 26,0 C 24,4 C 21,7 C 56 % 1013,2 hPa 0,0 l/m 0 min 0 min 26 W/m 12,9 km/h (3 Bft) 100,00 %
13.10.2018 17:38 25,9 C 24,4 C 21,7 C 56 % 1013,2 hPa 0,0 l/m 0 min 0 min 25 W/m 16,1 km/h (3 Bft) 100,00 %
13.10.2018 17:40 25,9 C 24,4 C 21,7 C 56 % 1013,2 hPa 0,0 l/m 0 min 0 min 26 W/m 6,4 km/h (2 Bft) 100,00 %
13.10.2018 17:42 25,8 C 24,4 C 21,1 C 57 % 1013,1 hPa 0,0 l/m 0 min 0 min 25 W/m 9,7 km/h (2 Bft) 100,00 %
13.10.2018 17:44 25,8 C 24,4 C 21,1 C 56 % 1013,2 hPa 0,0 l/m 0 min 0 min 25 W/m 12,9 km/h (3 Bft) 100,00 %
13.10.2018 17:46 25,7 C 23,9 C 21,1 C 57 % 1013,2 hPa 0,0 l/m 0 min 0 min 26 W/m 12,9 km/h (3 Bft) 100,00 %
13.10.2018 17:48 25,7 C 23,9 C 21,1 C 57 % 1013,1 hPa 0,0 l/m 0 min 0 min 28 W/m 12,9 km/h (3 Bft) 100,00 %
13.10.2018 17:50 25,6 C 23,9 C 21,1 C 57 % 1013,1 hPa 0,0 l/m 0 min 0 min 28 W/m 9,7 km/h (2 Bft) 100,00 %
13.10.2018 17:52 25,6 C 23,9 C 21,1 C 57 % 1013,2 hPa 0,0 l/m 0 min 0 min 28 W/m 12,9 km/h (3 Bft) 100,00 %
13.10.2018 17:54 25,5 C 23,9 C 21,1 C 57 % 1013,1 hPa 0,0 l/m 0 min 0 min 26 W/m 6,4 km/h (2 Bft) 100,00 %
13.10.2018 17:56 25,4 C 23,9 C 21,1 C 57 % 1013,1 hPa 0,0 l/m 0 min 0 min 25 W/m 9,7 km/h (2 Bft) 100,00 %
13.10.2018 17:58 25,4 C 23,9 C 21,1 C 57 % 1013,1 hPa 0,0 l/m 0 min 0 min 23 W/m 9,7 km/h (2 Bft) 97,87 %
13.10.2018 18:00 25,4 C 23,9 C 21,1 C 57 % 1013,1 hPa 0,0 l/m 0 min 0 min 22 W/m 9,7 km/h (2 Bft) 97,87 %
13.10.2018 18:02 25,3 C 23,9 C 20,6 C 58 % 1013,1 hPa 0,0 l/m 0 min 0 min 21 W/m 3,2 km/h (1 Bft) 100,00 %
13.10.2018 18:04 25,2 C 23,9 C 20,6 C 57 % 1013,0 hPa 0,0 l/m 0 min 0 min 20 W/m 12,9 km/h (3 Bft) 97,83 %
13.10.2018 18:08 25,1 C 23,3 C 20,6 C 57 % 1013,0 hPa 0,0 l/m 0 min 0 min 21 W/m 12,9 km/h (3 Bft) 94,68 %
13.10.2018 18:10 25,1 C 23,3 C 20,6 C 58 % 1013,0 hPa 0,0 l/m 0 min 0 min 21 W/m 9,7 km/h (2 Bft) 97,87 %
13.10.2018 18:12 25,1 C 23,3 C 20,6 C 57 % 1013,1 hPa 0,0 l/m 0 min 0 min 21 W/m 19,3 km/h (3 Bft) 97,87 %
13.10.2018 18:14 25,0 C 23,3 C 20,6 C 58 % 1013,1 hPa 0,0 l/m 0 min 0 min 21 W/m 6,4 km/h (2 Bft) 97,87 %
13.10.2018 18:16 24,9 C 23,3 C 20,6 C 58 % 1013,0 hPa 0,0 l/m 0 min 0 min 19 W/m 6,4 km/h (2 Bft) 95,92 %
13.10.2018 18:18 24,9 C 23,3 C 20,6 C 58 % 1013,0 hPa 0,0 l/m 0 min 0 min 18 W/m 9,7 km/h (2 Bft) 95,74 %
13.10.2018 18:20 24,8 C 22,8 C 20,6 C 58 % 1013,0 hPa 0,0 l/m 0 min 0 min 17 W/m 16,1 km/h (3 Bft) 97,87 %
13.10.2018 18:22 24,8 C 22,8 C 20,0 C 59 % 1013,0 hPa 0,0 l/m 0 min 0 min 14 W/m 6,4 km/h (2 Bft) 95,74 %
13.10.2018 18:24 24,7 C 22,8 C 20,0 C 59 % 1012,9 hPa 0,0 l/m 0 min 0 min 14 W/m 9,7 km/h (2 Bft) 97,87 %
13.10.2018 18:26 24,7 C 22,8 C 20,0 C 59 % 1013,0 hPa 0,0 l/m 0 min 0 min 12 W/m 16,1 km/h (3 Bft) 97,87 %
13.10.2018 18:28 24,6 C 22,8 C 20,0 C 59 % 1012,9 hPa 0,0 l/m 0 min 0 min 12 W/m 9,7 km/h (2 Bft) 97,83 %
13.10.2018 18:30 24,5 C 22,8 C 20,0 C 59 % 1012,9 hPa 0,0 l/m 0 min 0 min 11 W/m 9,7 km/h (2 Bft) 97,87 %
13.10.2018 18:32 24,4 C 22,8 C 20,0 C 59 % 1012,9 hPa 0,0 l/m 0 min 0 min 11 W/m 9,7 km/h (2 Bft) 97,87 %
13.10.2018 18:34 24,4 C 22,8 C 20,0 C 59 % 1013,0 hPa 0,0 l/m 0 min 0 min 9 W/m 12,9 km/h (3 Bft) 95,74 %
13.10.2018 18:38 24,2 C 22,2 C 20,0 C 59 % 1013,0 hPa 0,0 l/m 0 min 0 min 7 W/m 6,4 km/h (2 Bft) 95,88 %
13.10.2018 18:40 24,2 C 22,2 C 20,0 C 59 % 1012,9 hPa 0,0 l/m 0 min 0 min 6 W/m 9,7 km/h (2 Bft) 97,87 %
13.10.2018 18:42 24,1 C 22,2 C 20,0 C 59 % 1012,9 hPa 0,0 l/m 0 min 0 min 5 W/m 6,4 km/h (2 Bft) 100,00 %
13.10.2018 18:44 24,1 C 22,2 C 20,0 C 59 % 1013,0 hPa 0,0 l/m 0 min 0 min 2 W/m 6,4 km/h (2 Bft) 97,87 %
13.10.2018 18:46 24,0 C 22,2 C 19,4 C 59 % 1013,0 hPa 0,0 l/m 0 min 0 min 0 W/m 6,4 km/h (2 Bft) 100,00 %
13.10.2018 18:48 23,9 C 22,2 C 19,4 C 59 % 1013,0 hPa 0,0 l/m 0 min 0 min 0 W/m 9,7 km/h (2 Bft) 97,87 %
13.10.2018 18:50 23,9 C 22,2 C 19,4 C 59 % 1013,0 hPa 0,0 l/m 0 min 0 min 0 W/m 9,7 km/h (2 Bft) 97,83 %
13.10.2018 18:52 23,8 C 22,2 C 19,4 C 59 % 1012,9 hPa 0,0 l/m 0 min 0 min 0 W/m 9,7 km/h (2 Bft) 95,83 %
13.10.2018 18:54 23,7 C 22,2 C 19,4 C 59 % 1013,0 hPa 0,0 l/m 0 min 0 min 0 W/m 9,7 km/h (2 Bft) 95,74 %
13.10.2018 18:56 23,7 C 22,2 C 19,4 C 59 % 1012,9 hPa 0,0 l/m 0 min 0 min 0 W/m 9,7 km/h (2 Bft) 97,87 %
13.10.2018 18:58 23,6 C 21,7 C 19,4 C 59 % 1013,0 hPa 0,0 l/m 0 min 0 min 0 W/m 9,7 km/h (2 Bft) 97,87 %
13.10.2018 19:00 23,6 C 21,7 C 19,4 C 59 % 1013,0 hPa 0,0 l/m 0 min 0 min 0 W/m 9,7 km/h (2 Bft) 97,83 %
13.10.2018 19:02 23,5 C 21,7 C 19,4 C 59 % 1013,0 hPa 0,0 l/m 0 min 0 min 0 W/m 9,7 km/h (2 Bft) 97,67 %
13.10.2018 19:04 23,4 C 21,7 C 19,4 C 59 % 1013,0 hPa 0,0 l/m 0 min 0 min 0 W/m 9,7 km/h (2 Bft) 97,87 %
13.10.2018 19:08 23,3 C 21,7 C 19,4 C 59 % 1013,0 hPa 0,0 l/m 0 min 0 min 0 W/m 12,9 km/h (3 Bft) 97,87 %
13.10.2018 19:10 23,2 C 21,7 C 19,4 C 60 % 1013,0 hPa 0,0 l/m 0 min 0 min 0 W/m 6,4 km/h (2 Bft) 95,74 %
13.10.2018 19:12 23,2 C 21,7 C 19,4 C 60 % 1013,1 hPa 0,0 l/m 0 min 0 min 0 W/m 9,7 km/h (2 Bft) 95,74 %
13.10.2018 19:14 23,1 C 21,1 C 19,4 C 60 % 1013,0 hPa 0,0 l/m 0 min 0 min 0 W/m 6,4 km/h (2 Bft) 97,87 %
13.10.2018 19:16 23,1 C 21,1 C 19,4 C 60 % 1013,1 hPa 0,0 l/m 0 min 0 min 0 W/m 6,4 km/h (2 Bft) 95,74 %
13.10.2018 19:18 23,0 C 21,1 C 19,4 C 60 % 1013,1 hPa 0,0 l/m 0 min 0 min 0 W/m 9,7 km/h (2 Bft) 95,74 %
13.10.2018 19:20 22,9 C 21,1 C 18,9 C 60 % 1013,0 hPa 0,0 l/m 0 min 0 min 0 W/m 9,7 km/h (2 Bft) 97,87 %
13.10.2018 19:22 22,9 C 21,1 C 18,9 C 60 % 1013,1 hPa 0,0 l/m 0 min 0 min 0 W/m 9,7 km/h (2 Bft) 97,87 %
13.10.2018 19:24 22,8 C 21,1 C 18,9 C 60 % 1013,1 hPa 0,0 l/m 0 min 0 min 0 W/m 9,7 km/h (2 Bft) 97,87 %
13.10.2018 19:26 22,8 C 21,1 C 18,9 C 61 % 1013,0 hPa 0,0 l/m 0 min 0 min 0 W/m 9,7 km/h (2 Bft) 97,87 %
13.10.2018 19:28 22,7 C 21,1 C 18,9 C 61 % 1013,0 hPa 0,0 l/m 0 min 0 min 0 W/m 12,9 km/h (3 Bft) 93,48 %
13.10.2018 19:30 22,7 C 21,1 C 18,9 C 61 % 1013,1 hPa 0,0 l/m 0 min 0 min 0 W/m 9,7 km/h (2 Bft) 95,74 %
13.10.2018 19:32 22,6 C 21,1 C 18,9 C 61 % 1013,0 hPa 0,0 l/m 0 min 0 min 0 W/m 9,7 km/h (2 Bft) 96,00 %
13.10.2018 19:34 22,6 C 21,1 C 18,9 C 61 % 1012,9 hPa 0,0 l/m 0 min 0 min 0 W/m 9,7 km/h (2 Bft) 95,74 %
13.10.2018 19:38 22,4 C 21,1 C 18,9 C 61 % 1013,0 hPa 0,0 l/m 0 min 0 min 0 W/m 12,9 km/h (3 Bft) 95,70 %
13.10.2018 19:40 22,4 C 20,6 C 18,9 C 62 % 1012,9 hPa 0,0 l/m 0 min 0 min 0 W/m 6,4 km/h (2 Bft) 95,74 %
13.10.2018 19:42 22,4 C 20,6 C 18,9 C 62 % 1012,9 hPa 0,0 l/m 0 min 0 min 0 W/m 9,7 km/h (2 Bft) 95,74 %
13.10.2018 19:44 22,3 C 20,6 C 18,9 C 62 % 1012,9 hPa 0,0 l/m 0 min 0 min 0 W/m 6,4 km/h (2 Bft) 95,74 %
13.10.2018 19:46 22,3 C 20,6 C 18,9 C 62 % 1012,9 hPa 0,0 l/m 0 min 0 min 0 W/m 6,4 km/h (2 Bft) 93,75 %
13.10.2018 19:48 22,2 C 20,6 C 18,9 C 62 % 1012,9 hPa 0,0 l/m 0 min 0 min 0 W/m 6,4 km/h (2 Bft) 97,83 %
13.10.2018 19:50 22,2 C 20,6 C 18,3 C 62 % 1012,8 hPa 0,0 l/m 0 min 0 min 0 W/m 6,4 km/h (2 Bft) 97,87 %
13.10.2018 19:52 22,1 C 20,6 C 18,3 C 62 % 1012,9 hPa 0,0 l/m 0 min 0 min 0 W/m 12,9 km/h (3 Bft) 97,92 %
13.10.2018 19:54 22,1 C 20,6 C 18,3 C 62 % 1012,9 hPa 0,0 l/m 0 min 0 min 0 W/m 9,7 km/h (2 Bft) 93,62 %
13.10.2018 19:56 22,0 C 20,6 C 18,3 C 62 % 1012,9 hPa 0,0 l/m 0 min 0 min 0 W/m 6,4 km/h (2 Bft) 95,74 %
13.10.2018 19:58 22,0 C 20,6 C 18,3 C 62 % 1012,9 hPa 0,0 l/m 0 min 0 min 0 W/m 9,7 km/h (2 Bft) 97,87 %
13.10.2018 20:00 21,9 C 20,6 C 18,3 C 62 % 1012,8 hPa 0,0 l/m 0 min 0 min 0 W/m 6,4 km/h (2 Bft) 97,83 %
13.10.2018 20:02 21,9 C 20,6 C 18,3 C 62 % 1012,8 hPa 0,0 l/m 0 min 0 min 0 W/m 12,9 km/h (3 Bft) 95,56 %
13.10.2018 20:04 21,8 C 20,6 C 18,3 C 62 % 1012,8 hPa 0,0 l/m 0 min 0 min 0 W/m 12,9 km/h (3 Bft) 95,74 %
13.10.2018 20:08 21,8 C 20,6 C 18,3 C 63 % 1012,8 hPa 0,0 l/m 0 min 0 min 0 W/m 9,7 km/h (2 Bft) 97,87 %
13.10.2018 20:10 21,7 C 20,6 C 18,3 C 63 % 1012,8 hPa 0,0 l/m 0 min 0 min 0 W/m 6,4 km/h (2 Bft) 97,87 %
13.10.2018 20:12 21,7 C 20,6 C 18,3 C 63 % 1012,7 hPa 0,0 l/m 0 min 0 min 0 W/m 9,7 km/h (2 Bft) 97,87 %
13.10.2018 20:14 21,7 C 20,6 C 18,3 C 63 % 1012,7 hPa 0,0 l/m 0 min 0 min 0 W/m 9,7 km/h (2 Bft) 97,83 %
13.10.2018 20:16 21,6 C 20,6 C 18,3 C 63 % 1012,7 hPa 0,0 l/m 0 min 0 min 0 W/m 9,7 km/h (2 Bft) 97,96 %
13.10.2018 20:18 21,6 C 20,0 C 18,3 C 63 % 1012,7 hPa 0,0 l/m 0 min 0 min 0 W/m 9,7 km/h (2 Bft) 97,87 %
13.10.2018 20:20 21,6 C 20,0 C 18,3 C 63 % 1012,7 hPa 0,0 l/m 0 min 0 min 0 W/m 9,7 km/h (2 Bft) 100,00 %
13.10.2018 20:22 21,5 C 20,0 C 18,3 C 63 % 1012,7 hPa 0,0 l/m 0 min 0 min 0 W/m 9,7 km/h (2 Bft) 100,00 %
13.10.2018 20:24 21,5 C 20,6 C 18,3 C 63 % 1012,6 hPa 0,0 l/m 0 min 0 min 0 W/m 9,7 km/h (2 Bft) 100,00 %
13.10.2018 20:26 21,4 C 20,6 C 18,3 C 63 % 1012,7 hPa 0,0 l/m 0 min 0 min 0 W/m 12,9 km/h (3 Bft) 100,00 %
13.10.2018 20:28 21,4 C 20,0 C 18,3 C 63 % 1012,7 hPa 0,0 l/m 0 min 0 min 0 W/m 6,4 km/h (2 Bft) 100,00 %
13.10.2018 20:30 21,4 C 20,0 C 18,3 C 63 % 1012,6 hPa 0,0 l/m 0 min 0 min 0 W/m 9,7 km/h (2 Bft) 100,00 %
13.10.2018 20:32 21,3 C 20,0 C 18,3 C 63 % 1012,7 hPa 0,0 l/m 0 min 0 min 0 W/m 6,4 km/h (2 Bft) 100,00 %
13.10.2018 20:34 21,3 C 20,0 C 18,3 C 63 % 1012,6 hPa 0,0 l/m 0 min 0 min 0 W/m 6,4 km/h (2 Bft) 100,00 %
13.10.2018 20:38 21,2 C 20,0 C 18,3 C 64 % 1012,6 hPa 0,0 l/m 0 min 0 min 0 W/m 9,7 km/h (2 Bft) 100,00 %
13.10.2018 20:40 21,2 C 20,0 C 18,3 C 64 % 1012,6 hPa 0,0 l/m 0 min 0 min 0 W/m 3,2 km/h (1 Bft) 97,87 %
13.10.2018 20:42 21,2 C 20,0 C 18,3 C 64 % 1012,6 hPa 0,0 l/m 0 min 0 min 0 W/m 9,7 km/h (2 Bft) 95,74 %
13.10.2018 20:44 21,2 C 20,0 C 18,3 C 64 % 1012,6 hPa 0,0 l/m 0 min 0 min 0 W/m 3,2 km/h (1 Bft) 97,87 %
13.10.2018 20:46 21,2 C 20,0 C 18,3 C 64 % 1012,6 hPa 0,0 l/m 0 min 0 min 0 W/m 3,2 km/h (1 Bft) 98,04 %
13.10.2018 20:48 21,1 C 20,0 C 18,3 C 64 % 1012,6 hPa 0,0 l/m 0 min 0 min 0 W/m 6,4 km/h (2 Bft) 95,65 %
13.10.2018 20:50 21,1 C 20,0 C 18,3 C 64 % 1012,6 hPa 0,0 l/m 0 min 0 min 0 W/m 9,7 km/h (2 Bft) 97,87 %
13.10.2018 20:52 21,1 C 20,0 C 18,3 C 64 % 1012,7 hPa 0,0 l/m 0 min 0 min 0 W/m 9,7 km/h (2 Bft) 97,87 %
13.10.2018 20:54 21,1 C 20,0 C 18,3 C 64 % 1012,6 hPa 0,0 l/m 0 min 0 min 0 W/m 9,7 km/h (2 Bft) 97,87 %
13.10.2018 20:56 21,0 C 20,0 C 18,3 C 64 % 1012,6 hPa 0,0 l/m 0 min 0 min 0 W/m 12,9 km/h (3 Bft) 97,87 %
13.10.2018 20:58 21,0 C 20,0 C 18,3 C 64 % 1012,6 hPa 0,0 l/m 0 min 0 min 0 W/m 9,7 km/h (2 Bft) 95,74 %
13.10.2018 21:00 20,9 C 20,0 C 18,3 C 64 % 1012,6 hPa 0,0 l/m 0 min 0 min 0 W/m 16,1 km/h (3 Bft) 97,83 %
13.10.2018 21:02 20,9 C 20,0 C 17,8 C 64 % 1012,6 hPa 0,0 l/m 0 min 0 min 0 W/m 16,1 km/h (3 Bft) 97,87 %
13.10.2018 21:04 20,9 C 20,0 C 17,8 C 64 % 1012,6 hPa 0,0 l/m 0 min 0 min 0 W/m 9,7 km/h (2 Bft) 97,87 %
13.10.2018 21:08 20,8 C 19,4 C 17,8 C 64 % 1012,6 hPa 0,0 l/m 0 min 0 min 0 W/m 12,9 km/h (3 Bft) 97,87 %
13.10.2018 21:10 20,8 C 19,4 C 17,8 C 64 % 1012,6 hPa 0,0 l/m 0 min 0 min 0 W/m 9,7 km/h (2 Bft) 97,83 %
13.10.2018 21:12 20,8 C 19,4 C 17,8 C 64 % 1012,6 hPa 0,0 l/m 0 min 0 min 0 W/m 3,2 km/h (1 Bft) 97,87 %
13.10.2018 21:14 20,8 C 19,4 C 17,8 C 64 % 1012,6 hPa 0,0 l/m 0 min 0 min 0 W/m 12,9 km/h (3 Bft) 97,87 %
13.10.2018 21:16 20,7 C 19,4 C 17,8 C 64 % 1012,6 hPa 0,0 l/m 0 min 0 min 0 W/m 12,9 km/h (3 Bft) 95,74 %
13.10.2018 21:18 20,7 C 19,4 C 17,8 C 64 % 1012,6 hPa 0,0 l/m 0 min 0 min 0 W/m 9,7 km/h (2 Bft) 97,87 %
13.10.2018 21:20 20,7 C 19,4 C 17,8 C 64 % 1012,7 hPa 0,0 l/m 0 min 0 min 0 W/m 6,4 km/h (2 Bft) 97,87 %
13.10.2018 21:22 20,7 C 19,4 C 17,8 C 64 % 1012,7 hPa 0,0 l/m 0 min 0 min 0 W/m 12,9 km/h (3 Bft) 97,87 %
13.10.2018 21:24 20,6 C 19,4 C 17,8 C 64 % 1012,6 hPa 0,0 l/m 0 min 0 min 0 W/m 9,7 km/h (2 Bft) 97,87 %
13.10.2018 21:26 20,6 C 19,4 C 17,8 C 64 % 1012,6 hPa 0,0 l/m 0 min 0 min 0 W/m 9,7 km/h (2 Bft) 97,87 %
13.10.2018 21:28 20,6 C 19,4 C 17,8 C 64 % 1012,6 hPa 0,0 l/m 0 min 0 min 0 W/m 9,7 km/h (2 Bft) 100,00 %
13.10.2018 21:30 20,6 C 19,4 C 17,8 C 64 % 1012,6 hPa 0,0 l/m 0 min 0 min 0 W/m 6,4 km/h (2 Bft) 100,00 %
13.10.2018 21:32 20,5 C 19,4 C 17,8 C 64 % 1012,6 hPa 0,0 l/m 0 min 0 min 0 W/m 12,9 km/h (3 Bft) 100,00 %
13.10.2018 21:34 20,5 C 19,4 C 17,8 C 64 % 1012,6 hPa 0,0 l/m 0 min 0 min 0 W/m 16,1 km/h (3 Bft) 97,87 %
13.10.2018 21:38 20,4 C 19,4 C 17,8 C 64 % 1012,6 hPa 0,0 l/m 0 min 0 min 0 W/m 9,7 km/h (2 Bft) 100,00 %
13.10.2018 21:40 20,4 C 18,9 C 17,8 C 64 % 1012,5 hPa 0,0 l/m 0 min 0 min 0 W/m 9,7 km/h (2 Bft) 97,87 %
13.10.2018 21:42 20,4 C 18,9 C 17,8 C 64 % 1012,5 hPa 0,0 l/m 0 min 0 min 0 W/m 9,7 km/h (2 Bft) 100,00 %
13.10.2018 21:44 20,3 C 18,9 C 17,8 C 64 % 1012,5 hPa 0,0 l/m 0 min 0 min 0 W/m 12,9 km/h (3 Bft) 100,00 %
13.10.2018 21:46 20,3 C 18,9 C 17,8 C 64 % 1012,5 hPa 0,0 l/m 0 min 0 min 0 W/m 16,1 km/h (3 Bft) 100,00 %
13.10.2018 21:48 20,3 C 18,9 C 17,2 C 65 % 1012,5 hPa 0,0 l/m 0 min 0 min 0 W/m 9,7 km/h (2 Bft) 100,00 %
13.10.2018 21:50 20,2 C 18,9 C 17,8 C 64 % 1012,5 hPa 0,0 l/m 0 min 0 min 0 W/m 9,7 km/h (2 Bft) 100,00 %
13.10.2018 21:52 20,2 C 18,9 C 17,8 C 64 % 1012,5 hPa 0,0 l/m 0 min 0 min 0 W/m 9,7 km/h (2 Bft) 100,00 %
13.10.2018 21:54 20,2 C 18,9 C 17,8 C 65 % 1012,5 hPa 0,0 l/m 0 min 0 min 0 W/m 9,7 km/h (2 Bft) 100,00 %
13.10.2018 21:56 20,2 C 18,9 C 17,8 C 65 % 1012,4 hPa 0,0 l/m 0 min 0 min 0 W/m 16,1 km/h (3 Bft) 100,00 %
13.10.2018 21:58 20,1 C 18,9 C 17,8 C 65 % 1012,4 hPa 0,0 l/m 0 min 0 min 0 W/m 16,1 km/h (3 Bft) 100,00 %
13.10.2018 22:00 20,1 C 18,9 C 17,2 C 65 % 1012,5 hPa 0,0 l/m 0 min 0 min 0 W/m 9,7 km/h (2 Bft) 100,00 %
13.10.2018 22:02 20,1 C 18,9 C 17,8 C 65 % 1012,4 hPa 0,0 l/m 0 min 0 min 0 W/m 12,9 km/h (3 Bft) 97,87 %
13.10.2018 22:04 20,1 C 18,9 C 17,8 C 65 % 1012,4 hPa 0,0 l/m 0 min 0 min 0 W/m 9,7 km/h (2 Bft) 97,87 %
13.10.2018 22:08 20,0 C 18,9 C 17,2 C 65 % 1012,3 hPa 0,0 l/m 0 min 0 min 0 W/m 9,7 km/h (2 Bft) 98,92 %
13.10.2018 22:10 19,9 C 18,9 C 17,2 C 65 % 1012,3 hPa 0,0 l/m 0 min 0 min 0 W/m 9,7 km/h (2 Bft) 100,00 %
13.10.2018 22:12 19,9 C 18,9 C 17,2 C 65 % 1012,2 hPa 0,0 l/m 0 min 0 min 0 W/m 9,7 km/h (2 Bft) 97,87 %
13.10.2018 22:14 19,9 C 18,9 C 17,2 C 65 % 1012,3 hPa 0,0 l/m 0 min 0 min 0 W/m 9,7 km/h (2 Bft) 97,87 %
13.10.2018 22:16 19,9 C 18,9 C 17,2 C 65 % 1012,2 hPa 0,0 l/m 0 min 0 min 0 W/m 12,9 km/h (3 Bft) 95,74 %
13.10.2018 22:18 19,9 C 18,9 C 17,2 C 65 % 1012,2 hPa 0,0 l/m 0 min 0 min 0 W/m 9,7 km/h (2 Bft) 95,74 %
13.10.2018 22:20 19,9 C 18,9 C 17,8 C 65 % 1012,2 hPa 0,0 l/m 0 min 0 min 0 W/m 22,5 km/h (4 Bft) 95,65 %
13.10.2018 22:22 19,8 C 18,9 C 17,8 C 65 % 1012,2 hPa 0,0 l/m 0 min 0 min 0 W/m 12,9 km/h (3 Bft) 95,83 %
13.10.2018 22:24 19,8 C 18,9 C 17,8 C 65 % 1012,2 hPa 0,0 l/m 0 min 0 min 0 W/m 9,7 km/h (2 Bft) 95,74 %
13.10.2018 22:26 19,8 C 18,9 C 17,2 C 65 % 1012,2 hPa 0,0 l/m 0 min 0 min 0 W/m 19,3 km/h (3 Bft) 95,74 %
13.10.2018 22:28 19,8 C 18,9 C 17,8 C 65 % 1012,2 hPa 0,0 l/m 0 min 0 min 0 W/m 19,3 km/h (3 Bft) 93,62 %
13.10.2018 22:30 19,8 C 18,9 C 17,2 C 65 % 1012,2 hPa 0,0 l/m 0 min 0 min 0 W/m 12,9 km/h (3 Bft) 95,74 %
13.10.2018 22:32 19,8 C 18,9 C 17,2 C 65 % 1012,1 hPa 0,0 l/m 0 min 0 min 0 W/m 12,9 km/h (3 Bft) 95,65 %
13.10.2018 22:34 19,8 C 18,9 C 17,2 C 65 % 1012,1 hPa 0,0 l/m 0 min 0 min 0 W/m 9,7 km/h (2 Bft) 93,62 %
13.10.2018 22:38 19,8 C 19,4 C 17,8 C 65 % 1012,1 hPa 0,0 l/m 0 min 0 min 0 W/m 22,5 km/h (4 Bft) 95,79 %
13.10.2018 22:40 19,8 C 18,9 C 17,8 C 65 % 1012,1 hPa 0,0 l/m 0 min 0 min 0 W/m 16,1 km/h (3 Bft) 95,74 %
13.10.2018 22:42 19,8 C 18,9 C 17,8 C 65 % 1012,0 hPa 0,0 l/m 0 min 0 min 0 W/m 12,9 km/h (3 Bft) 95,74 %
13.10.2018 22:44 19,8 C 18,9 C 17,8 C 66 % 1012,1 hPa 0,0 l/m 0 min 0 min 0 W/m 12,9 km/h (3 Bft) 95,65 %
13.10.2018 22:46 19,8 C 18,9 C 17,8 C 66 % 1012,0 hPa 0,0 l/m 0 min 0 min 0 W/m 12,9 km/h (3 Bft) 93,02 %
13.10.2018 22:48 19,8 C 18,9 C 17,8 C 66 % 1012,0 hPa 0,0 l/m 0 min 0 min 0 W/m 9,7 km/h (2 Bft) 95,65 %
13.10.2018 22:50 19,8 C 18,9 C 17,2 C 66 % 1012,0 hPa 0,0 l/m 0 min 0 min 0 W/m 12,9 km/h (3 Bft) 95,74 %
13.10.2018 22:52 19,8 C 18,9 C 17,2 C 66 % 1012,0 hPa 0,0 l/m 0 min 0 min 0 W/m 12,9 km/h (3 Bft) 95,74 %
13.10.2018 22:54 19,8 C 18,9 C 17,2 C 66 % 1012,1 hPa 0,0 l/m 0 min 0 min 0 W/m 16,1 km/h (3 Bft) 95,74 %
13.10.2018 22:56 19,8 C 18,9 C 17,2 C 66 % 1012,0 hPa 0,0 l/m 0 min 0 min 0 W/m 16,1 km/h (3 Bft) 95,74 %
13.10.2018 22:58 19,8 C 18,9 C 17,2 C 66 % 1012,0 hPa 0,0 l/m 0 min 0 min 0 W/m 16,1 km/h (3 Bft) 93,88 %
13.10.2018 23:00 19,8 C 18,9 C 17,2 C 66 % 1012,0 hPa 0,0 l/m 0 min 0 min 0 W/m 12,9 km/h (3 Bft) 95,74 %
13.10.2018 23:02 19,8 C 18,9 C 17,2 C 66 % 1012,0 hPa 0,0 l/m 0 min 0 min 0 W/m 16,1 km/h (3 Bft) 96,00 %
13.10.2018 23:04 19,8 C 18,9 C 17,2 C 66 % 1012,0 hPa 0,0 l/m 0 min 0 min 0 W/m 12,9 km/h (3 Bft) 93,62 %
13.10.2018 23:08 19,8 C 18,9 C 17,8 C 66 % 1011,9 hPa 0,0 l/m 0 min 0 min 0 W/m 19,3 km/h (3 Bft) 96,77 %
13.10.2018 23:10 19,8 C 18,9 C 17,8 C 66 % 1011,9 hPa 0,0 l/m 0 min 0 min 0 W/m 12,9 km/h (3 Bft) 97,87 %
13.10.2018 23:12 19,8 C 18,9 C 17,2 C 66 % 1011,9 hPa 0,0 l/m 0 min 0 min 0 W/m 25,7 km/h (4 Bft) 97,87 %
13.10.2018 23:14 19,7 C 18,9 C 17,2 C 66 % 1011,9 hPa 0,0 l/m 0 min 0 min 0 W/m 12,9 km/h (3 Bft) 97,87 %
13.10.2018 23:16 19,7 C 18,9 C 17,2 C 67 % 1012,0 hPa 0,0 l/m 0 min 0 min 0 W/m 9,7 km/h (2 Bft) 97,87 %
13.10.2018 23:18 19,7 C 18,9 C 17,2 C 67 % 1012,0 hPa 0,0 l/m 0 min 0 min 0 W/m 12,9 km/h (3 Bft) 95,65 %
13.10.2018 23:20 19,7 C 18,9 C 17,2 C 67 % 1012,0 hPa 0,0 l/m 0 min 0 min 0 W/m 9,7 km/h (2 Bft) 95,74 %
13.10.2018 23:22 19,7 C 18,3 C 17,2 C 67 % 1012,0 hPa 0,0 l/m 0 min 0 min 0 W/m 9,7 km/h (2 Bft) 97,22 %
13.10.2018 23:24 19,6 C 18,3 C 17,2 C 67 % 1012,0 hPa 0,0 l/m 0 min 0 min 0 W/m 12,9 km/h (3 Bft) 95,65 %
13.10.2018 23:26 19,6 C 18,3 C 17,2 C 67 % 1012,0 hPa 0,0 l/m 0 min 0 min 0 W/m 12,9 km/h (3 Bft) 97,87 %
13.10.2018 23:28 19,6 C 18,3 C 17,2 C 67 % 1012,0 hPa 0,0 l/m 0 min 0 min 0 W/m 12,9 km/h (3 Bft) 93,62 %
13.10.2018 23:30 19,6 C 18,3 C 17,2 C 67 % 1012,0 hPa 0,0 l/m 0 min 0 min 0 W/m 9,7 km/h (2 Bft) 97,87 %
13.10.2018 23:32 19,5 C 18,3 C 17,2 C 68 % 1012,0 hPa 0,0 l/m 0 min 0 min 0 W/m 9,7 km/h (2 Bft) 97,96 %
13.10.2018 23:34 19,5 C 18,3 C 17,2 C 68 % 1012,0 hPa 0,0 l/m 0 min 0 min 0 W/m 6,4 km/h (2 Bft) 97,87 %
13.10.2018 23:38 19,4 C 17,8 C 17,2 C 68 % 1012,1 hPa 0,0 l/m 0 min 0 min 0 W/m 6,4 km/h (2 Bft) 94,68 %
13.10.2018 23:40 19,4 C 17,8 C 17,2 C 67 % 1012,1 hPa 0,0 l/m 0 min 0 min 0 W/m 3,2 km/h (1 Bft) 97,87 %
13.10.2018 23:42 19,3 C 17,8 C 16,7 C 68 % 1012,1 hPa 0,0 l/m 0 min 0 min 0 W/m 9,7 km/h (2 Bft) 97,87 %
13.10.2018 23:44 19,3 C 17,8 C 16,7 C 68 % 1012,1 hPa 0,0 l/m 0 min 0 min 0 W/m 3,2 km/h (1 Bft) 97,87 %
13.10.2018 23:46 19,3 C 17,8 C 16,7 C 68 % 1012,1 hPa 0,0 l/m 0 min 0 min 0 W/m 3,2 km/h (1 Bft) 97,96 %
13.10.2018 23:48 19,2 C 17,8 C 16,7 C 68 % 1012,0 hPa 0,0 l/m 0 min 0 min 0 W/m 12,9 km/h (3 Bft) 97,87 %
13.10.2018 23:50 19,2 C 18,3 C 16,7 C 68 % 1012,1 hPa 0,0 l/m 0 min 0 min 0 W/m 9,7 km/h (2 Bft) 95,74 %
13.10.2018 23:52 19,2 C 18,3 C 16,7 C 68 % 1012,1 hPa 0,0 l/m 0 min 0 min 0 W/m 9,7 km/h (2 Bft) 95,74 %
13.10.2018 23:54 19,1 C 18,3 C 16,7 C 68 % 1012,0 hPa 0,0 l/m 0 min 0 min 0 W/m 9,7 km/h (2 Bft) 95,74 %
13.10.2018 23:56 19,1 C 18,3 C 16,7 C 68 % 1011,9 hPa 0,0 l/m 0 min 0 min 0 W/m 9,7 km/h (2 Bft) 97,83 %
13.10.2018 23:58 19,1 C 17,8 C 16,7 C 68 % 1012,0 hPa 0,0 l/m 0 min 0 min 0 W/m 9,7 km/h (2 Bft) 97,87 %
_ Min-Zeit 08:28 06:30 07:52 15:26 23:08 - - - - 04:38 02:58
Minimum _ 16,1 C 15,6 C 14,4 C 53 % 1011,9 hPa - - - - 3,2 km/h (1 Bft) 91,49 %
_ Max-Zeit 15:48 12:16 14:52 08:18 00:00 00:00 13:08 00:00 13:48 15:24 01:10
Maximum _ 27,0 C 31,1 C 23,3 C 86 % 1018,6 hPa 0,0 l/m 4 min 0 min 471 W/m 32,2 km/h
O (5 Bft)
100,00 %
Durchschnitt _ 20,8 C 20,7 C 18,0 C 71 % 1015,9 hPa #0,0 l/m #3:40 h #0 min. 165 W/m 13,6 km/h (3 Bft) 97,49 %
© 2018 W. Hausmann